<?xml version="1.0" encoding="UTF-8" standalone="no" ?><gpx xmlns="http://www.topografix.com/GPX/1/1" xmlns:gpxx="http://www.garmin.com/xmlschemas/GpxExtensions/v3" xmlns:wptx1="http://www.garmin.com/xmlschemas/WaypointExtension/v1" xmlns:gpxtpx="http://www.garmin.com/xmlschemas/TrackPointExtension/v1" creator="GuideVTT.com" version="1.1" xmlns:xsi="http://www.w3.org/2001/XMLSchema-instance" xsi:schemaLocation="http://www.topografix.com/GPX/1/1 http://www.topografix.com/GPX/1/1/gpx.xsd http://www.garmin.com/xmlschemas/GpxExtensions/v3 http://www8.garmin.com/xmlschemas/GpxExtensionsv3.xsd http://www.garmin.com/xmlschemas/WaypointExtension/v1 http://www8.garmin.com/xmlschemas/WaypointExtensionv1.xsd http://www.garmin.com/xmlschemas/TrackPointExtension/v1 http://www.garmin.com/xmlschemas/TrackPointExtensionv1.xsd">
<metadata><link href="http://www.garmin.com"><text>Garmin International</text></link><time>2013-06-22T15:13:50Z</time></metadata>
<trk><name>rp_vtt_2012_13bis_etrex.gpx</name><extensions><gpxx:TrackExtension><gpxx:DisplayColor>Cyan</gpxx:DisplayColor></gpxx:TrackExtension></extensions><trkseg>
<trkpt lat="46.5998236835" lon="6.3752082456"><ele></ele><time>2013-8-22T10:30:50Z</time></trkpt>
<trkpt lat="46.5998241864" lon="6.3752106763"><ele></ele><time>2013-8-22T10:30:53Z</time></trkpt>
<trkpt lat="46.5998241864" lon="6.3752106763"><ele></ele><time>2013-8-22T10:30:56Z</time></trkpt>
<trkpt lat="46.5998221748" lon="6.3752126880"><ele></ele><time>2013-8-22T10:30:59Z</time></trkpt>
<trkpt lat="46.5998232644" lon="6.3752084132"><ele></ele><time>2013-8-22T10:31:2Z</time></trkpt>
<trkpt lat="46.5998232644" lon="6.3752084132"><ele></ele><time>2013-8-22T10:31:5Z</time></trkpt>
<trkpt lat="46.5998248570" lon="6.3752052281"><ele></ele><time>2013-8-22T10:31:8Z</time></trkpt>
<trkpt lat="46.5998248570" lon="6.3752052281"><ele></ele><time>2013-8-22T10:31:11Z</time></trkpt>
<trkpt lat="46.5998284612" lon="6.3752238359"><ele></ele><time>2013-8-22T10:31:14Z</time></trkpt>
<trkpt lat="46.5998252761" lon="6.3752404321"><ele></ele><time>2013-8-22T10:31:17Z</time></trkpt>
<trkpt lat="46.5997741465" lon="6.3753450383"><ele></ele><time>2013-8-22T10:31:20Z</time></trkpt>
<trkpt lat="46.5997878928" lon="6.3757544942"><ele></ele><time>2013-8-22T10:31:23Z</time></trkpt>
<trkpt lat="46.5998554509" lon="6.3761735894"><ele></ele><time>2013-8-22T10:31:26Z</time></trkpt>
<trkpt lat="46.6000271123" lon="6.3764270581"><ele></ele><time>2013-8-22T10:31:29Z</time></trkpt>
<trkpt lat="46.6002374981" lon="6.3765941933"><ele></ele><time>2013-8-22T10:31:32Z</time></trkpt>
<trkpt lat="46.6004050523" lon="6.3765936065"><ele></ele><time>2013-8-22T10:31:35Z</time></trkpt>
<trkpt lat="46.6005006060" lon="6.3766780961"><ele></ele><time>2013-8-22T10:31:38Z</time></trkpt>
<trkpt lat="46.6006732732" lon="6.3768618274"><ele></ele><time>2013-8-22T10:31:41Z</time></trkpt>
<trkpt lat="46.6007130034" lon="6.3769065030"><ele></ele><time>2013-8-22T10:31:44Z</time></trkpt>
<trkpt lat="46.6007337067" lon="6.3769110292"><ele></ele><time>2013-8-22T10:31:47Z</time></trkpt>
<trkpt lat="46.6008975729" lon="6.3770235982"><ele></ele><time>2013-8-22T10:31:50Z</time></trkpt>
<trkpt lat="46.6010232177" lon="6.3770836126"><ele></ele><time>2013-8-22T10:31:53Z</time></trkpt>
<trkpt lat="46.6011113953" lon="6.3770948444"><ele></ele><time>2013-8-22T10:31:56Z</time></trkpt>
<trkpt lat="46.6012670472" lon="6.3770629931"><ele></ele><time>2013-8-22T10:31:59Z</time></trkpt>
<trkpt lat="46.6013210267" lon="6.3770222571"><ele></ele><time>2013-8-22T10:32:2Z</time></trkpt>
<trkpt lat="46.6014843062" lon="6.3768183254"><ele></ele><time>2013-8-22T10:32:5Z</time></trkpt>
<trkpt lat="46.6015748307" lon="6.3765951991"><ele></ele><time>2013-8-22T10:32:8Z</time></trkpt>
<trkpt lat="46.6016366892" lon="6.3763277326"><ele></ele><time>2013-8-22T10:32:11Z</time></trkpt>
<trkpt lat="46.6016805265" lon="6.3759956416"><ele></ele><time>2013-8-22T10:32:14Z</time></trkpt>
<trkpt lat="46.6017042473" lon="6.3755628001"><ele></ele><time>2013-8-22T10:32:17Z</time></trkpt>
<trkpt lat="46.6017315723" lon="6.3750505820"><ele></ele><time>2013-8-22T10:32:20Z</time></trkpt>
<trkpt lat="46.6018664371" lon="6.3745839614"><ele></ele><time>2013-8-22T10:32:23Z</time></trkpt>
<trkpt lat="46.6020018887" lon="6.3742698077"><ele></ele><time>2013-8-22T10:32:26Z</time></trkpt>
<trkpt lat="46.6020572092" lon="6.3738664705"><ele></ele><time>2013-8-22T10:32:29Z</time></trkpt>
<trkpt lat="46.6020342428" lon="6.3736417517"><ele></ele><time>2013-8-22T10:32:32Z</time></trkpt>
<trkpt lat="46.6017825343" lon="6.3732102513"><ele></ele><time>2013-8-22T10:32:35Z</time></trkpt>
<trkpt lat="46.6017258726" lon="6.3731709402"><ele></ele><time>2013-8-22T10:32:38Z</time></trkpt>
<trkpt lat="46.6011407319" lon="6.3727717102"><ele></ele><time>2013-8-22T10:32:41Z</time></trkpt>
<trkpt lat="46.6010499559" lon="6.3723778445"><ele></ele><time>2013-8-22T10:32:44Z</time></trkpt>
<trkpt lat="46.6011969745" lon="6.3719660416"><ele></ele><time>2013-8-22T10:32:47Z</time></trkpt>
<trkpt lat="46.6013358627" lon="6.3710817508"><ele></ele><time>2013-8-22T10:32:50Z</time></trkpt>
<trkpt lat="46.6013057716" lon="6.3709592074"><ele></ele><time>2013-8-22T10:32:53Z</time></trkpt>
<trkpt lat="46.6011728346" lon="6.3703892380"><ele></ele><time>2013-8-22T10:32:56Z</time></trkpt>
<trkpt lat="46.6011668835" lon="6.3698135689"><ele></ele><time>2013-8-22T10:32:59Z</time></trkpt>
<trkpt lat="46.6011627764" lon="6.3697584998"><ele></ele><time>2013-8-22T10:33:2Z</time></trkpt>
<trkpt lat="46.6009242274" lon="6.3689322118"><ele></ele><time>2013-8-22T10:33:5Z</time></trkpt>
<trkpt lat="46.6005921364" lon="6.3683591411"><ele></ele><time>2013-8-22T10:33:8Z</time></trkpt>
<trkpt lat="46.6005441081" lon="6.3680731505"><ele></ele><time>2013-8-22T10:33:11Z</time></trkpt>
<trkpt lat="46.6005975008" lon="6.3677528780"><ele></ele><time>2013-8-22T10:33:14Z</time></trkpt>
<trkpt lat="46.6006351355" lon="6.3676688913"><ele></ele><time>2013-8-22T10:33:17Z</time></trkpt>
<trkpt lat="46.6007189546" lon="6.3674441725"><ele></ele><time>2013-8-22T10:33:20Z</time></trkpt>
<trkpt lat="46.6007957328" lon="6.3672771212"><ele></ele><time>2013-8-22T10:33:23Z</time></trkpt>
<trkpt lat="46.6008502990" lon="6.3671052083"><ele></ele><time>2013-8-22T10:33:26Z</time></trkpt>
<trkpt lat="46.6008808929" lon="6.3670670707"><ele></ele><time>2013-8-22T10:33:29Z</time></trkpt>
<trkpt lat="46.6009263229" lon="6.3669272605"><ele></ele><time>2013-8-22T10:33:32Z</time></trkpt>
<trkpt lat="46.6009996645" lon="6.3667380810"><ele></ele><time>2013-8-22T10:33:35Z</time></trkpt>
<trkpt lat="46.6010332759" lon="6.3666686788"><ele></ele><time>2013-8-22T10:33:38Z</time></trkpt>
<trkpt lat="46.6010322701" lon="6.3666109275"><ele></ele><time>2013-8-22T10:33:41Z</time></trkpt>
<trkpt lat="46.6010559909" lon="6.3664682675"><ele></ele><time>2013-8-22T10:33:44Z</time></trkpt>
<trkpt lat="46.6010714974" lon="6.3664295431"><ele></ele><time>2013-8-22T10:33:47Z</time></trkpt>
<trkpt lat="46.6011458449" lon="6.3662527688"><ele></ele><time>2013-8-22T10:33:50Z</time></trkpt>
<trkpt lat="46.6012017522" lon="6.3660386112"><ele></ele><time>2013-8-22T10:33:53Z</time></trkpt>
<trkpt lat="46.6012402251" lon="6.3659015670"><ele></ele><time>2013-8-22T10:33:56Z</time></trkpt>
<trkpt lat="46.6014043428" lon="6.3659189176"><ele></ele><time>2013-8-22T10:33:59Z</time></trkpt>
<trkpt lat="46.6015606653" lon="6.3659304846"><ele></ele><time>2013-8-22T10:34:2Z</time></trkpt>
<trkpt lat="46.6016506869" lon="6.3660568837"><ele></ele><time>2013-8-22T10:34:5Z</time></trkpt>
<trkpt lat="46.6016571410" lon="6.3661026489"><ele></ele><time>2013-8-22T10:34:8Z</time></trkpt>
<trkpt lat="46.6016879026" lon="6.3662458956"><ele></ele><time>2013-8-22T10:34:11Z</time></trkpt>
<trkpt lat="46.6016903333" lon="6.3662655931"><ele></ele><time>2013-8-22T10:34:14Z</time></trkpt>
<trkpt lat="46.6017882340" lon="6.3665268570"><ele></ele><time>2013-8-22T10:34:17Z</time></trkpt>
<trkpt lat="46.6018795967" lon="6.3667789847"><ele></ele><time>2013-8-22T10:34:20Z</time></trkpt>
<trkpt lat="46.6019594762" lon="6.3669795636"><ele></ele><time>2013-8-22T10:34:23Z</time></trkpt>
<trkpt lat="46.6019867174" lon="6.3670240715"><ele></ele><time>2013-8-22T10:34:26Z</time></trkpt>
<trkpt lat="46.6020225082" lon="6.3670863491"><ele></ele><time>2013-8-22T10:34:29Z</time></trkpt>
<trkpt lat="46.6020706203" lon="6.3671697490"><ele></ele><time>2013-8-22T10:34:32Z</time></trkpt>
<trkpt lat="46.6022024676" lon="6.3673430029"><ele></ele><time>2013-8-22T10:34:35Z</time></trkpt>
<trkpt lat="46.6022527590" lon="6.3675206993"><ele></ele><time>2013-8-22T10:34:38Z</time></trkpt>
<trkpt lat="46.6023100913" lon="6.3677333482"><ele></ele><time>2013-8-22T10:34:41Z</time></trkpt>
<trkpt lat="46.6023706086" lon="6.3678697217"><ele></ele><time>2013-8-22T10:34:44Z</time></trkpt>
<trkpt lat="46.6024848539" lon="6.3681386132"><ele></ele><time>2013-8-22T10:34:47Z</time></trkpt>
<trkpt lat="46.6026521567" lon="6.3682418782"><ele></ele><time>2013-8-22T10:34:50Z</time></trkpt>
<trkpt lat="46.6028543282" lon="6.3684774935"><ele></ele><time>2013-8-22T10:34:53Z</time></trkpt>
<trkpt lat="46.6029150132" lon="6.3685032260"><ele></ele><time>2013-8-22T10:34:56Z</time></trkpt>
<trkpt lat="46.6030411609" lon="6.3685597200"><ele></ele><time>2013-8-22T10:34:59Z</time></trkpt>
<trkpt lat="46.6030611098" lon="6.3685950916"><ele></ele><time>2013-8-22T10:35:2Z</time></trkpt>
<trkpt lat="46.6031619441" lon="6.3686717022"><ele></ele><time>2013-8-22T10:35:5Z</time></trkpt>
<trkpt lat="46.6032574140" lon="6.3686908130"><ele></ele><time>2013-8-22T10:35:8Z</time></trkpt>
<trkpt lat="46.6033596732" lon="6.3687033858"><ele></ele><time>2013-8-22T10:35:11Z</time></trkpt>
<trkpt lat="46.6034159996" lon="6.3686967641"><ele></ele><time>2013-8-22T10:35:14Z</time></trkpt>
<trkpt lat="46.6034450009" lon="6.3686810061"><ele></ele><time>2013-8-22T10:35:17Z</time></trkpt>
<trkpt lat="46.6035067756" lon="6.3686729595"><ele></ele><time>2013-8-22T10:35:20Z</time></trkpt>
<trkpt lat="46.6035899241" lon="6.3686391804"><ele></ele><time>2013-8-22T10:35:23Z</time></trkpt>
<trkpt lat="46.6035917681" lon="6.3685711194"><ele></ele><time>2013-8-22T10:35:26Z</time></trkpt>
<trkpt lat="46.6035793629" lon="6.3683746476"><ele></ele><time>2013-8-22T10:35:29Z</time></trkpt>
<trkpt lat="46.6035601683" lon="6.3682502601"><ele></ele><time>2013-8-22T10:35:32Z</time></trkpt>
<trkpt lat="46.6035378724" lon="6.3681215979"><ele></ele><time>2013-8-22T10:35:35Z</time></trkpt>
<trkpt lat="46.6035628505" lon="6.3679558877"><ele></ele><time>2013-8-22T10:35:38Z</time></trkpt>
<trkpt lat="46.6036076099" lon="6.3678601664"><ele></ele><time>2013-8-22T10:35:41Z</time></trkpt>
<trkpt lat="46.6037047561" lon="6.3677334320"><ele></ele><time>2013-8-22T10:35:44Z</time></trkpt>
<trkpt lat="46.6037204303" lon="6.3677044306"><ele></ele><time>2013-8-22T10:35:47Z</time></trkpt>
<trkpt lat="46.6037371103" lon="6.3676621020"><ele></ele><time>2013-8-22T10:35:50Z</time></trkpt>
<trkpt lat="46.6037703026" lon="6.3676251378"><ele></ele><time>2013-8-22T10:35:53Z</time></trkpt>
<trkpt lat="46.6038187500" lon="6.3675155025"><ele></ele><time>2013-8-22T10:35:56Z</time></trkpt>
<trkpt lat="46.6039028205" lon="6.3674237207"><ele></ele><time>2013-8-22T10:35:59Z</time></trkpt>
<trkpt lat="46.6040388588" lon="6.3673471101"><ele></ele><time>2013-8-22T10:36:2Z</time></trkpt>
<trkpt lat="46.6041791718" lon="6.3672876824"><ele></ele><time>2013-8-22T10:36:5Z</time></trkpt>
<trkpt lat="46.6043128632" lon="6.3672758639"><ele></ele><time>2013-8-22T10:36:8Z</time></trkpt>
<trkpt lat="46.6044289526" lon="6.3672683202"><ele></ele><time>2013-8-22T10:36:11Z</time></trkpt>
<trkpt lat="46.6046486422" lon="6.3672265783"><ele></ele><time>2013-8-22T10:36:14Z</time></trkpt>
<trkpt lat="46.6047698446" lon="6.3671864290"><ele></ele><time>2013-8-22T10:36:17Z</time></trkpt>
<trkpt lat="46.6049446911" lon="6.3672070485"><ele></ele><time>2013-8-22T10:36:20Z</time></trkpt>
<trkpt lat="46.6049763747" lon="6.3672241475"><ele></ele><time>2013-8-22T10:36:23Z</time></trkpt>
<trkpt lat="46.6051432583" lon="6.3671941403"><ele></ele><time>2013-8-22T10:36:26Z</time></trkpt>
<trkpt lat="46.6053411551" lon="6.3672265783"><ele></ele><time>2013-8-22T10:36:29Z</time></trkpt>
<trkpt lat="46.6053741798" lon="6.3671983313"><ele></ele><time>2013-8-22T10:36:32Z</time></trkpt>
<trkpt lat="46.6055951267" lon="6.3671092317"><ele></ele><time>2013-8-22T10:36:35Z</time></trkpt>
<trkpt lat="46.6058235336" lon="6.3670320343"><ele></ele><time>2013-8-22T10:36:38Z</time></trkpt>
<trkpt lat="46.6059750784" lon="6.3669794798"><ele></ele><time>2013-8-22T10:36:41Z</time></trkpt>
<trkpt lat="46.6060008109" lon="6.3669612072"><ele></ele><time>2013-8-22T10:36:44Z</time></trkpt>
<trkpt lat="46.6062476579" lon="6.3669121731"><ele></ele><time>2013-8-22T10:36:47Z</time></trkpt>
<trkpt lat="46.6063759010" lon="6.3669138495"><ele></ele><time>2013-8-22T10:36:50Z</time></trkpt>
<trkpt lat="46.6064587981" lon="6.3668871950"><ele></ele><time>2013-8-22T10:36:53Z</time></trkpt>
<trkpt lat="46.6065051500" lon="6.3668901287"><ele></ele><time>2013-8-22T10:36:56Z</time></trkpt>
<trkpt lat="46.6066600475" lon="6.3668900449"><ele></ele><time>2013-8-22T10:36:59Z</time></trkpt>
<trkpt lat="46.6067330539" lon="6.3668735325"><ele></ele><time>2013-8-22T10:37:2Z</time></trkpt>
<trkpt lat="46.6068072338" lon="6.3668681681"><ele></ele><time>2013-8-22T10:37:5Z</time></trkpt>
<trkpt lat="46.6069913842" lon="6.3668309525"><ele></ele><time>2013-8-22T10:37:8Z</time></trkpt>
<trkpt lat="46.6071861796" lon="6.3668291084"><ele></ele><time>2013-8-22T10:37:11Z</time></trkpt>
<trkpt lat="46.6073691566" lon="6.3667930663"><ele></ele><time>2013-8-22T10:37:14Z</time></trkpt>
<trkpt lat="46.6074581724" lon="6.3667641487"><ele></ele><time>2013-8-22T10:37:17Z</time></trkpt>
<trkpt lat="46.6075907741" lon="6.3667438645"><ele></ele><time>2013-8-22T10:37:20Z</time></trkpt>
<trkpt lat="46.6077549756" lon="6.3667130191"><ele></ele><time>2013-8-22T10:37:23Z</time></trkpt>
<trkpt lat="46.6078758426" lon="6.3667408470"><ele></ele><time>2013-8-22T10:37:26Z</time></trkpt>
<trkpt lat="46.6079382878" lon="6.3667233288"><ele></ele><time>2013-8-22T10:37:29Z</time></trkpt>
<trkpt lat="46.6081478354" lon="6.3667139411"><ele></ele><time>2013-8-22T10:37:32Z</time></trkpt>
<trkpt lat="46.6082736477" lon="6.3667119294"><ele></ele><time>2013-8-22T10:37:35Z</time></trkpt>
<trkpt lat="46.6083277110" lon="6.3667391706"><ele></ele><time>2013-8-22T10:37:38Z</time></trkpt>
<trkpt lat="46.6085023899" lon="6.3667130191"><ele></ele><time>2013-8-22T10:37:41Z</time></trkpt>
<trkpt lat="46.6086656693" lon="6.3665266056"><ele></ele><time>2013-8-22T10:37:44Z</time></trkpt>
<trkpt lat="46.6086858697" lon="6.3665006217"><ele></ele><time>2013-8-22T10:37:47Z</time></trkpt>
<trkpt lat="46.6087689344" lon="6.3663884718"><ele></ele><time>2013-8-22T10:37:50Z</time></trkpt>
<trkpt lat="46.6089335550" lon="6.3663657568"><ele></ele><time>2013-8-22T10:37:53Z</time></trkpt>
<trkpt lat="46.6090240795" lon="6.3663871307"><ele></ele><time>2013-8-22T10:37:56Z</time></trkpt>
<trkpt lat="46.6091405042" lon="6.3664463907"><ele></ele><time>2013-8-22T10:37:59Z</time></trkpt>
<trkpt lat="46.6091567650" lon="6.3664249331"><ele></ele><time>2013-8-22T10:38:2Z</time></trkpt>
<trkpt lat="46.6091787256" lon="6.3664352428"><ele></ele><time>2013-8-22T10:38:5Z</time></trkpt>
<trkpt lat="46.6091788933" lon="6.3664263580"><ele></ele><time>2013-8-22T10:38:8Z</time></trkpt>
<trkpt lat="46.6091912147" lon="6.3663365040"><ele></ele><time>2013-8-22T10:38:11Z</time></trkpt>
<trkpt lat="46.6091240756" lon="6.3661110308"><ele></ele><time>2013-8-22T10:38:14Z</time></trkpt>
<trkpt lat="46.6091111675" lon="6.3659960311"><ele></ele><time>2013-8-22T10:38:17Z</time></trkpt>
<trkpt lat="46.6090705153" lon="6.3658382837"><ele></ele><time>2013-8-22T10:38:20Z</time></trkpt>
<trkpt lat="46.6089526657" lon="6.3657607511"><ele></ele><time>2013-8-22T10:38:23Z</time></trkpt>
<trkpt lat="46.6089206468" lon="6.3657701388"><ele></ele><time>2013-8-22T10:38:26Z</time></trkpt>
<trkpt lat="46.6087829322" lon="6.3658536226"><ele></ele><time>2013-8-22T10:38:29Z</time></trkpt>
<trkpt lat="46.6087378375" lon="6.3658839650"><ele></ele><time>2013-8-22T10:38:32Z</time></trkpt>
<trkpt lat="46.6085629910" lon="6.3658427261"><ele></ele><time>2013-8-22T10:38:35Z</time></trkpt>
<trkpt lat="46.6085222550" lon="6.3657439873"><ele></ele><time>2013-8-22T10:38:38Z</time></trkpt>
<trkpt lat="46.6084479075" lon="6.3655476831"><ele></ele><time>2013-8-22T10:38:41Z</time></trkpt>
<trkpt lat="46.6084399447" lon="6.3655201904"><ele></ele><time>2013-8-22T10:38:44Z</time></trkpt>
<trkpt lat="46.6084098537" lon="6.3652420789"><ele></ele><time>2013-8-22T10:38:47Z</time></trkpt>
<trkpt lat="46.6084024776" lon="6.3651931286"><ele></ele><time>2013-8-22T10:38:50Z</time></trkpt>
<trkpt lat="46.6083375178" lon="6.3648626301"><ele></ele><time>2013-8-22T10:38:53Z</time></trkpt>
<trkpt lat="46.6082350910" lon="6.3646964170"><ele></ele><time>2013-8-22T10:38:56Z</time></trkpt>
<trkpt lat="46.6081161518" lon="6.3645893801"><ele></ele><time>2013-8-22T10:38:59Z</time></trkpt>
<trkpt lat="46.6079946980" lon="6.3644397631"><ele></ele><time>2013-8-22T10:39:2Z</time></trkpt>
<trkpt lat="46.6079579853" lon="6.3643996976"><ele></ele><time>2013-8-22T10:39:5Z</time></trkpt>
<trkpt lat="46.6078139003" lon="6.3642222527"><ele></ele><time>2013-8-22T10:39:8Z</time></trkpt>
<trkpt lat="46.6077225376" lon="6.3640355878"><ele></ele><time>2013-8-22T10:39:11Z</time></trkpt>
<trkpt lat="46.6076403949" lon="6.3639017288"><ele></ele><time>2013-8-22T10:39:14Z</time></trkpt>
<trkpt lat="46.6075280774" lon="6.3637689594"><ele></ele><time>2013-8-22T10:39:17Z</time></trkpt>
<trkpt lat="46.6074453481" lon="6.3637281395"><ele></ele><time>2013-8-22T10:39:20Z</time></trkpt>
<trkpt lat="46.6073972359" lon="6.3636675384"><ele></ele><time>2013-8-22T10:39:23Z</time></trkpt>
<trkpt lat="46.6072207969" lon="6.3635371160"><ele></ele><time>2013-8-22T10:39:26Z</time></trkpt>
<trkpt lat="46.6071398277" lon="6.3634355273"><ele></ele><time>2013-8-22T10:39:29Z</time></trkpt>
<trkpt lat="46.6070057172" lon="6.3634309173"><ele></ele><time>2013-8-22T10:39:32Z</time></trkpt>
<trkpt lat="46.6069854330" lon="6.3634440769"><ele></ele><time>2013-8-22T10:39:35Z</time></trkpt>
<trkpt lat="46.6068241652" lon="6.3634681329"><ele></ele><time>2013-8-22T10:39:38Z</time></trkpt>
<trkpt lat="46.6067209840" lon="6.3634119742"><ele></ele><time>2013-8-22T10:39:41Z</time></trkpt>
<trkpt lat="46.6066354886" lon="6.3632248901"><ele></ele><time>2013-8-22T10:39:44Z</time></trkpt>
<trkpt lat="46.6066289507" lon="6.3632053602"><ele></ele><time>2013-8-22T10:39:47Z</time></trkpt>
<trkpt lat="46.6065836046" lon="6.3630610239"><ele></ele><time>2013-8-22T10:39:50Z</time></trkpt>
<trkpt lat="46.6065406892" lon="6.3628893625"><ele></ele><time>2013-8-22T10:39:53Z</time></trkpt>
<trkpt lat="46.6064639110" lon="6.3627363089"><ele></ele><time>2013-8-22T10:39:56Z</time></trkpt>
<trkpt lat="46.6063027270" lon="6.3626564294"><ele></ele><time>2013-8-22T10:39:59Z</time></trkpt>
<trkpt lat="46.6061327420" lon="6.3625793997"><ele></ele><time>2013-8-22T10:40:2Z</time></trkpt>
<trkpt lat="46.6060145572" lon="6.3625270966"><ele></ele><time>2013-8-22T10:40:5Z</time></trkpt>
<trkpt lat="46.6058506072" lon="6.3624436967"><ele></ele><time>2013-8-22T10:40:8Z</time></trkpt>
<trkpt lat="46.6056725755" lon="6.3623435330"><ele></ele><time>2013-8-22T10:40:11Z</time></trkpt>
<trkpt lat="46.6055891756" lon="6.3623110112"><ele></ele><time>2013-8-22T10:40:14Z</time></trkpt>
<trkpt lat="46.6054417379" lon="6.3621297944"><ele></ele><time>2013-8-22T10:40:17Z</time></trkpt>
<trkpt lat="46.6053903569" lon="6.3619001303"><ele></ele><time>2013-8-22T10:40:20Z</time></trkpt>
<trkpt lat="46.6055064462" lon="6.3619082607"><ele></ele><time>2013-8-22T10:40:23Z</time></trkpt>
<trkpt lat="46.6056830529" lon="6.3618870545"><ele></ele><time>2013-8-22T10:40:26Z</time></trkpt>
<trkpt lat="46.6057826299" lon="6.3618304767"><ele></ele><time>2013-8-22T10:40:29Z</time></trkpt>
<trkpt lat="46.6058828775" lon="6.3617894892"><ele></ele><time>2013-8-22T10:40:32Z</time></trkpt>
<trkpt lat="46.6060188320" lon="6.3617448136"><ele></ele><time>2013-8-22T10:40:35Z</time></trkpt>
<trkpt lat="46.6061545350" lon="6.3617370185"><ele></ele><time>2013-8-22T10:40:38Z</time></trkpt>
<trkpt lat="46.6062670201" lon="6.3616826199"><ele></ele><time>2013-8-22T10:40:41Z</time></trkpt>
<trkpt lat="46.6063637473" lon="6.3617175724"><ele></ele><time>2013-8-22T10:40:44Z</time></trkpt>
<trkpt lat="46.6064797528" lon="6.3617026526"><ele></ele><time>2013-8-22T10:40:47Z</time></trkpt>
<trkpt lat="46.6066893842" lon="6.3616075180"><ele></ele><time>2013-8-22T10:40:50Z</time></trkpt>
<trkpt lat="46.6068672482" lon="6.3615951128"><ele></ele><time>2013-8-22T10:40:53Z</time></trkpt>
<trkpt lat="46.6069362313" lon="6.3616315741"><ele></ele><time>2013-8-22T10:40:56Z</time></trkpt>
<trkpt lat="46.6070074774" lon="6.3616500981"><ele></ele><time>2013-8-22T10:40:59Z</time></trkpt>
<trkpt lat="46.6071053781" lon="6.3616616651"><ele></ele><time>2013-8-22T10:41:2Z</time></trkpt>
<trkpt lat="46.6071642190" lon="6.3616618328"><ele></ele><time>2013-8-22T10:41:5Z</time></trkpt>
<trkpt lat="46.6074808035" lon="6.3617769163"><ele></ele><time>2013-8-22T10:41:8Z</time></trkpt>
<trkpt lat="46.6076239664" lon="6.3618033193"><ele></ele><time>2013-8-22T10:41:11Z</time></trkpt>
<trkpt lat="46.6077991482" lon="6.3618422952"><ele></ele><time>2013-8-22T10:41:14Z</time></trkpt>
<trkpt lat="46.6079679597" lon="6.3618043251"><ele></ele><time>2013-8-22T10:41:17Z</time></trkpt>
<trkpt lat="46.6081345920" lon="6.3617987093"><ele></ele><time>2013-8-22T10:41:20Z</time></trkpt>
<trkpt lat="46.6081470810" lon="6.3618022297"><ele></ele><time>2013-8-22T10:41:23Z</time></trkpt>
<trkpt lat="46.6081703827" lon="6.3618009724"><ele></ele><time>2013-8-22T10:41:26Z</time></trkpt>
<trkpt lat="46.6083689500" lon="6.3618443068"><ele></ele><time>2013-8-22T10:41:29Z</time></trkpt>
<trkpt lat="46.6084184032" lon="6.3618435524"><ele></ele><time>2013-8-22T10:41:32Z</time></trkpt>
<trkpt lat="46.6086635739" lon="6.3619276229"><ele></ele><time>2013-8-22T10:41:35Z</time></trkpt>
<trkpt lat="46.6088421084" lon="6.3619254436"><ele></ele><time>2013-8-22T10:41:38Z</time></trkpt>
<trkpt lat="46.6089979280" lon="6.3619969413"><ele></ele><time>2013-8-22T10:41:41Z</time></trkpt>
<trkpt lat="46.6090261750" lon="6.3620243501"><ele></ele><time>2013-8-22T10:41:44Z</time></trkpt>
<trkpt lat="46.6091951542" lon="6.3620400243"><ele></ele><time>2013-8-22T10:41:47Z</time></trkpt>
<trkpt lat="46.6093220562" lon="6.3620351627"><ele></ele><time>2013-8-22T10:41:50Z</time></trkpt>
<trkpt lat="46.6094918735" lon="6.3620489091"><ele></ele><time>2013-8-22T10:41:53Z</time></trkpt>
<trkpt lat="46.6095080506" lon="6.3620287087"><ele></ele><time>2013-8-22T10:41:56Z</time></trkpt>
<trkpt lat="46.6095269099" lon="6.3620208297"><ele></ele><time>2013-8-22T10:41:59Z</time></trkpt>
<trkpt lat="46.6097353678" lon="6.3620099332"><ele></ele><time>2013-8-22T10:42:2Z</time></trkpt>
<trkpt lat="46.6098802909" lon="6.3620278705"><ele></ele><time>2013-8-22T10:42:5Z</time></trkpt>
<trkpt lat="46.6100166645" lon="6.3619955163"><ele></ele><time>2013-8-22T10:42:8Z</time></trkpt>
<trkpt lat="46.6101286467" lon="6.3620132022"><ele></ele><time>2013-8-22T10:42:11Z</time></trkpt>
<trkpt lat="46.6103858035" lon="6.3621654175"><ele></ele><time>2013-8-22T10:42:14Z</time></trkpt>
<trkpt lat="46.6105766594" lon="6.3621787447"><ele></ele><time>2013-8-22T10:42:17Z</time></trkpt>
<trkpt lat="46.6107538529" lon="6.3621477317"><ele></ele><time>2013-8-22T10:42:20Z</time></trkpt>
<trkpt lat="46.6108937468" lon="6.3622105960"><ele></ele><time>2013-8-22T10:42:23Z</time></trkpt>
<trkpt lat="46.6110173799" lon="6.3622360770"><ele></ele><time>2013-8-22T10:42:26Z</time></trkpt>
<trkpt lat="46.6111805756" lon="6.3622183912"><ele></ele><time>2013-8-22T10:42:29Z</time></trkpt>
<trkpt lat="46.6112093255" lon="6.3622320537"><ele></ele><time>2013-8-22T10:42:32Z</time></trkpt>
<trkpt lat="46.6112180427" lon="6.3622289523"><ele></ele><time>2013-8-22T10:42:35Z</time></trkpt>
<trkpt lat="46.6112125944" lon="6.3622273598"><ele></ele><time>2013-8-22T10:42:38Z</time></trkpt>
<trkpt lat="46.6112165339" lon="6.3622219115"><ele></ele><time>2013-8-22T10:42:41Z</time></trkpt>
<trkpt lat="46.6112165339" lon="6.3622219115"><ele></ele><time>2013-8-22T10:42:44Z</time></trkpt>
<trkpt lat="46.6112182941" lon="6.3622210734"><ele></ele><time>2013-8-22T10:42:47Z</time></trkpt>
<trkpt lat="46.6112182941" lon="6.3622210734"><ele></ele><time>2013-8-22T10:42:50Z</time></trkpt>
<trkpt lat="46.6112265922" lon="6.3622252643"><ele></ele><time>2013-8-22T10:42:53Z</time></trkpt>
<trkpt lat="46.6112317890" lon="6.3622272760"><ele></ele><time>2013-8-22T10:42:56Z</time></trkpt>
<trkpt lat="46.6112340521" lon="6.3622364122"><ele></ele><time>2013-8-22T10:42:59Z</time></trkpt>
<trkpt lat="46.6113233194" lon="6.3622167986"><ele></ele><time>2013-8-22T10:43:2Z</time></trkpt>
<trkpt lat="46.6114080604" lon="6.3622198999"><ele></ele><time>2013-8-22T10:43:5Z</time></trkpt>
<trkpt lat="46.6116845794" lon="6.3622772321"><ele></ele><time>2013-8-22T10:43:8Z</time></trkpt>
<trkpt lat="46.6120008286" lon="6.3623431139"><ele></ele><time>2013-8-22T10:43:11Z</time></trkpt>
<trkpt lat="46.6122425627" lon="6.3624263462"><ele></ele><time>2013-8-22T10:43:14Z</time></trkpt>
<trkpt lat="46.6124017350" lon="6.3626868557"><ele></ele><time>2013-8-22T10:43:17Z</time></trkpt>
<trkpt lat="46.6123705544" lon="6.3629577588"><ele></ele><time>2013-8-22T10:43:20Z</time></trkpt>
<trkpt lat="46.6123128869" lon="6.3631191943"><ele></ele><time>2013-8-22T10:43:23Z</time></trkpt>
<trkpt lat="46.6122905910" lon="6.3633752614"><ele></ele><time>2013-8-22T10:43:26Z</time></trkpt>
<trkpt lat="46.6124076862" lon="6.3634293247"><ele></ele><time>2013-8-22T10:43:29Z</time></trkpt>
<trkpt lat="46.6124369390" lon="6.3634631038"><ele></ele><time>2013-8-22T10:43:32Z</time></trkpt>
<trkpt lat="46.6125215124" lon="6.3634828012"><ele></ele><time>2013-8-22T10:43:35Z</time></trkpt>
<trkpt lat="46.6127053276" lon="6.3635069411"><ele></ele><time>2013-8-22T10:43:38Z</time></trkpt>
<trkpt lat="46.6128155496" lon="6.3635712303"><ele></ele><time>2013-8-22T10:43:41Z</time></trkpt>
<trkpt lat="46.6129281186" lon="6.3636605814"><ele></ele><time>2013-8-22T10:43:44Z</time></trkpt>
<trkpt lat="46.6130360775" lon="6.3637044188"><ele></ele><time>2013-8-22T10:43:47Z</time></trkpt>
<trkpt lat="46.6130756401" lon="6.3637269661"><ele></ele><time>2013-8-22T10:43:50Z</time></trkpt>
<trkpt lat="46.6132633109" lon="6.3636813685"><ele></ele><time>2013-8-22T10:43:53Z</time></trkpt>
<trkpt lat="46.6134280153" lon="6.3636452425"><ele></ele><time>2013-8-22T10:43:56Z</time></trkpt>
<trkpt lat="46.6134638060" lon="6.3636290655"><ele></ele><time>2013-8-22T10:43:59Z</time></trkpt>
<trkpt lat="46.6135322861" lon="6.3636428118"><ele></ele><time>2013-8-22T10:44:2Z</time></trkpt>
<trkpt lat="46.6135724355" lon="6.3636498526"><ele></ele><time>2013-8-22T10:44:5Z</time></trkpt>
<trkpt lat="46.6136539076" lon="6.3636993896"><ele></ele><time>2013-8-22T10:44:8Z</time></trkpt>
<trkpt lat="46.6137601901" lon="6.3637703843"><ele></ele><time>2013-8-22T10:44:11Z</time></trkpt>
<trkpt lat="46.6138531454" lon="6.3639332447"><ele></ele><time>2013-8-22T10:44:14Z</time></trkpt>
<trkpt lat="46.6138878465" lon="6.3640203327"><ele></ele><time>2013-8-22T10:44:17Z</time></trkpt>
<trkpt lat="46.6139757726" lon="6.3642510865"><ele></ele><time>2013-8-22T10:44:20Z</time></trkpt>
<trkpt lat="46.6140791215" lon="6.3643950876"><ele></ele><time>2013-8-22T10:44:23Z</time></trkpt>
<trkpt lat="46.6142386291" lon="6.3645198103"><ele></ele><time>2013-8-22T10:44:26Z</time></trkpt>
<trkpt lat="46.6143452469" lon="6.3645329699"><ele></ele><time>2013-8-22T10:44:29Z</time></trkpt>
<trkpt lat="46.6145185847" lon="6.3645369094"><ele></ele><time>2013-8-22T10:44:32Z</time></trkpt>
<trkpt lat="46.6146603227" lon="6.3645223249"><ele></ele><time>2013-8-22T10:44:35Z</time></trkpt>
<trkpt lat="46.6148320679" lon="6.3644492347"><ele></ele><time>2013-8-22T10:44:38Z</time></trkpt>
<trkpt lat="46.6149905697" lon="6.3643961772"><ele></ele><time>2013-8-22T10:44:41Z</time></trkpt>
<trkpt lat="46.6151845269" lon="6.3643974345"><ele></ele><time>2013-8-22T10:44:44Z</time></trkpt>
<trkpt lat="46.6152031347" lon="6.3644045591"><ele></ele><time>2013-8-22T10:44:47Z</time></trkpt>
<trkpt lat="46.6152611375" lon="6.3644458819"><ele></ele><time>2013-8-22T10:44:50Z</time></trkpt>
<trkpt lat="46.6154875327" lon="6.3644883782"><ele></ele><time>2013-8-22T10:44:53Z</time></trkpt>
<trkpt lat="46.6156900395" lon="6.3645314611"><ele></ele><time>2013-8-22T10:44:56Z</time></trkpt>
<trkpt lat="46.6159135848" lon="6.3645633124"><ele></ele><time>2013-8-22T10:44:59Z</time></trkpt>
<trkpt lat="46.6160653811" lon="6.3645141106"><ele></ele><time>2013-8-22T10:45:2Z</time></trkpt>
<trkpt lat="46.6160948854" lon="6.3644999452"><ele></ele><time>2013-8-22T10:45:5Z</time></trkpt>
<trkpt lat="46.6160974000" lon="6.3645017054"><ele></ele><time>2013-8-22T10:45:8Z</time></trkpt>
<trkpt lat="46.6160888504" lon="6.3644781522"><ele></ele><time>2013-8-22T10:45:11Z</time></trkpt>
<trkpt lat="46.6160888504" lon="6.3644781522"><ele></ele><time>2013-8-22T10:45:14Z</time></trkpt>
<trkpt lat="46.6160911974" lon="6.3644801639"><ele></ele><time>2013-8-22T10:45:17Z</time></trkpt>
<trkpt lat="46.6160943825" lon="6.3644379191"><ele></ele><time>2013-8-22T10:45:20Z</time></trkpt>
<trkpt lat="46.6160247289" lon="6.3643734623"><ele></ele><time>2013-8-22T10:45:23Z</time></trkpt>
<trkpt lat="46.6158767045" lon="6.3642924931"><ele></ele><time>2013-8-22T10:45:26Z</time></trkpt>
<trkpt lat="46.6157559212" lon="6.3641587179"><ele></ele><time>2013-8-22T10:45:29Z</time></trkpt>
<trkpt lat="46.6157090664" lon="6.3640875556"><ele></ele><time>2013-8-22T10:45:32Z</time></trkpt>
<trkpt lat="46.6156584397" lon="6.3640164770"><ele></ele><time>2013-8-22T10:45:35Z</time></trkpt>
<trkpt lat="46.6154564358" lon="6.3638105337"><ele></ele><time>2013-8-22T10:45:38Z</time></trkpt>
<trkpt lat="46.6153832618" lon="6.3637574762"><ele></ele><time>2013-8-22T10:45:41Z</time></trkpt>
<trkpt lat="46.6151512507" lon="6.3636012375"><ele></ele><time>2013-8-22T10:45:44Z</time></trkpt>
<trkpt lat="46.6149112768" lon="6.3634033408"><ele></ele><time>2013-8-22T10:45:47Z</time></trkpt>
<trkpt lat="46.6147381905" lon="6.3631978165"><ele></ele><time>2013-8-22T10:45:50Z</time></trkpt>
<trkpt lat="46.6145527828" lon="6.3630181085"><ele></ele><time>2013-8-22T10:45:53Z</time></trkpt>
<trkpt lat="46.6143682133" lon="6.3628612831"><ele></ele><time>2013-8-22T10:45:56Z</time></trkpt>
<trkpt lat="46.6141699813" lon="6.3627060503"><ele></ele><time>2013-8-22T10:45:59Z</time></trkpt>
<trkpt lat="46.6140361223" lon="6.3624945749"><ele></ele><time>2013-8-22T10:46:2Z</time></trkpt>
<trkpt lat="46.6139887646" lon="6.3624344766"><ele></ele><time>2013-8-22T10:46:5Z</time></trkpt>
<trkpt lat="46.6139002517" lon="6.3621433731"><ele></ele><time>2013-8-22T10:46:8Z</time></trkpt>
<trkpt lat="46.6138040274" lon="6.3618552871"><ele></ele><time>2013-8-22T10:46:11Z</time></trkpt>
<trkpt lat="46.6137025226" lon="6.3616596535"><ele></ele><time>2013-8-22T10:46:14Z</time></trkpt>
<trkpt lat="46.6136172786" lon="6.3614173327"><ele></ele><time>2013-8-22T10:46:17Z</time></trkpt>
<trkpt lat="46.6136083938" lon="6.3613854814"><ele></ele><time>2013-8-22T10:46:20Z</time></trkpt>
<trkpt lat="46.6135423444" lon="6.3611932006"><ele></ele><time>2013-8-22T10:46:23Z</time></trkpt>
<trkpt lat="46.6134147719" lon="6.3610372972"><ele></ele><time>2013-8-22T10:46:26Z</time></trkpt>
<trkpt lat="46.6132478043" lon="6.3609129097"><ele></ele><time>2013-8-22T10:46:29Z</time></trkpt>
<trkpt lat="46.6130990256" lon="6.3608352095"><ele></ele><time>2013-8-22T10:46:32Z</time></trkpt>
<trkpt lat="46.6129632387" lon="6.3607378956"><ele></ele><time>2013-8-22T10:46:35Z</time></trkpt>
<trkpt lat="46.6129505821" lon="6.3607264962"><ele></ele><time>2013-8-22T10:46:38Z</time></trkpt>
<trkpt lat="46.6128083412" lon="6.3606243208"><ele></ele><time>2013-8-22T10:46:41Z</time></trkpt>
<trkpt lat="46.6127101053" lon="6.3605542481"><ele></ele><time>2013-8-22T10:46:44Z</time></trkpt>
<trkpt lat="46.6125642601" lon="6.3605116680"><ele></ele><time>2013-8-22T10:46:47Z</time></trkpt>
<trkpt lat="46.6123588197" lon="6.3604705129"><ele></ele><time>2013-8-22T10:46:50Z</time></trkpt>
<trkpt lat="46.6123150662" lon="6.3603897952"><ele></ele><time>2013-8-22T10:46:53Z</time></trkpt>
<trkpt lat="46.6123793554" lon="6.3603823353"><ele></ele><time>2013-8-22T10:46:56Z</time></trkpt>
<trkpt lat="46.6124497633" lon="6.3603400066"><ele></ele><time>2013-8-22T10:46:59Z</time></trkpt>
<trkpt lat="46.6125609912" lon="6.3602954987"><ele></ele><time>2013-8-22T10:47:2Z</time></trkpt>
<trkpt lat="46.6126995441" lon="6.3603131007"><ele></ele><time>2013-8-22T10:47:5Z</time></trkpt>
<trkpt lat="46.6128070839" lon="6.3603588659"><ele></ele><time>2013-8-22T10:47:8Z</time></trkpt>
<trkpt lat="46.6128348280" lon="6.3603636436"><ele></ele><time>2013-8-22T10:47:11Z</time></trkpt>
<trkpt lat="46.6128656734" lon="6.3603745401"><ele></ele><time>2013-8-22T10:47:14Z</time></trkpt>
<trkpt lat="46.6130035557" lon="6.3603735343"><ele></ele><time>2013-8-22T10:47:17Z</time></trkpt>
<trkpt lat="46.6132030450" lon="6.3603682537"><ele></ele><time>2013-8-22T10:47:20Z</time></trkpt>
<trkpt lat="46.6132600419" lon="6.3603801560"><ele></ele><time>2013-8-22T10:47:23Z</time></trkpt>
<trkpt lat="46.6132814996" lon="6.3603746239"><ele></ele><time>2013-8-22T10:47:26Z</time></trkpt>
<trkpt lat="46.6134006903" lon="6.3604335487"><ele></ele><time>2013-8-22T10:47:29Z</time></trkpt>
<trkpt lat="46.6135230660" lon="6.3605123386"><ele></ele><time>2013-8-22T10:47:32Z</time></trkpt>
<trkpt lat="46.6136585176" lon="6.3605349697"><ele></ele><time>2013-8-22T10:47:35Z</time></trkpt>
<trkpt lat="46.6137844138" lon="6.3605367299"><ele></ele><time>2013-8-22T10:47:38Z</time></trkpt>
<trkpt lat="46.6138854157" lon="6.3604963291"><ele></ele><time>2013-8-22T10:47:41Z</time></trkpt>
<trkpt lat="46.6140331049" lon="6.3605032861"><ele></ele><time>2013-8-22T10:47:44Z</time></trkpt>
<trkpt lat="46.6142068617" lon="6.3605405856"><ele></ele><time>2013-8-22T10:47:47Z</time></trkpt>
<trkpt lat="46.6142313369" lon="6.3605467044"><ele></ele><time>2013-8-22T10:47:50Z</time></trkpt>
<trkpt lat="46.6143392120" lon="6.3605632167"><ele></ele><time>2013-8-22T10:47:53Z</time></trkpt>
<trkpt lat="46.6143761761" lon="6.3605719339"><ele></ele><time>2013-8-22T10:47:56Z</time></trkpt>
<trkpt lat="46.6144896671" lon="6.3606243208"><ele></ele><time>2013-8-22T10:47:59Z</time></trkpt>
<trkpt lat="46.6145661939" lon="6.3606114965"><ele></ele><time>2013-8-22T10:48:2Z</time></trkpt>
<trkpt lat="46.6146147251" lon="6.3606320322"><ele></ele><time>2013-8-22T10:48:5Z</time></trkpt>
<trkpt lat="46.6147650965" lon="6.3606771268"><ele></ele><time>2013-8-22T10:48:8Z</time></trkpt>
<trkpt lat="46.6148169804" lon="6.3607097324"><ele></ele><time>2013-8-22T10:48:11Z</time></trkpt>
<trkpt lat="46.6148961894" lon="6.3607033622"><ele></ele><time>2013-8-22T10:48:14Z</time></trkpt>
<trkpt lat="46.6149954312" lon="6.3607166894"><ele></ele><time>2013-8-22T10:48:17Z</time></trkpt>
<trkpt lat="46.6151268594" lon="6.3607332017"><ele></ele><time>2013-8-22T10:48:20Z</time></trkpt>
<trkpt lat="46.6152582876" lon="6.3607485406"><ele></ele><time>2013-8-22T10:48:23Z</time></trkpt>
<trkpt lat="46.6153689288" lon="6.3607607782"><ele></ele><time>2013-8-22T10:48:26Z</time></trkpt>
<trkpt lat="46.6155208927" lon="6.3608173560"><ele></ele><time>2013-8-22T10:48:29Z</time></trkpt>
<trkpt lat="46.6156629659" lon="6.3608749397"><ele></ele><time>2013-8-22T10:48:32Z</time></trkpt>
<trkpt lat="46.6157493833" lon="6.3608825672"><ele></ele><time>2013-8-22T10:48:35Z</time></trkpt>
<trkpt lat="46.6158467811" lon="6.3608941343"><ele></ele><time>2013-8-22T10:48:38Z</time></trkpt>
<trkpt lat="46.6159484535" lon="6.3609440904"><ele></ele><time>2013-8-22T10:48:41Z</time></trkpt>
<trkpt lat="46.6160543170" lon="6.3609784562"><ele></ele><time>2013-8-22T10:48:44Z</time></trkpt>
<trkpt lat="46.6161167622" lon="6.3609899394"><ele></ele><time>2013-8-22T10:48:47Z</time></trkpt>
<trkpt lat="46.6162553988" lon="6.3610334415"><ele></ele><time>2013-8-22T10:48:50Z</time></trkpt>
<trkpt lat="46.6162973922" lon="6.3610248920"><ele></ele><time>2013-8-22T10:48:53Z</time></trkpt>
<trkpt lat="46.6164341010" lon="6.3609614410"><ele></ele><time>2013-8-22T10:48:56Z</time></trkpt>
<trkpt lat="46.6164382081" lon="6.3609654643"><ele></ele><time>2013-8-22T10:48:59Z</time></trkpt>
<trkpt lat="46.6164745856" lon="6.3609449286"><ele></ele><time>2013-8-22T10:49:2Z</time></trkpt>
<trkpt lat="46.6164701432" lon="6.3609583396"><ele></ele><time>2013-8-22T10:49:5Z</time></trkpt>
<trkpt lat="46.6164701432" lon="6.3609583396"><ele></ele><time>2013-8-22T10:49:8Z</time></trkpt>
<trkpt lat="46.6164723225" lon="6.3609610219"><ele></ele><time>2013-8-22T10:49:11Z</time></trkpt>
<trkpt lat="46.6164723225" lon="6.3609610219"><ele></ele><time>2013-8-22T10:49:14Z</time></trkpt>
<trkpt lat="46.6164733283" lon="6.3609613571"><ele></ele><time>2013-8-22T10:49:17Z</time></trkpt>
<trkpt lat="46.6164733283" lon="6.3609613571"><ele></ele><time>2013-8-22T10:49:20Z</time></trkpt>
<trkpt lat="46.6164852306" lon="6.3609676436"><ele></ele><time>2013-8-22T10:49:23Z</time></trkpt>
<trkpt lat="46.6164852306" lon="6.3609676436"><ele></ele><time>2013-8-22T10:49:26Z</time></trkpt>
<trkpt lat="46.6164836381" lon="6.3609686494"><ele></ele><time>2013-8-22T10:49:29Z</time></trkpt>
<trkpt lat="46.6164836381" lon="6.3609686494"><ele></ele><time>2013-8-22T10:49:32Z</time></trkpt>
<trkpt lat="46.6164903436" lon="6.3609679788"><ele></ele><time>2013-8-22T10:49:35Z</time></trkpt>
<trkpt lat="46.6164998151" lon="6.3609591778"><ele></ele><time>2013-8-22T10:49:38Z</time></trkpt>
<trkpt lat="46.6165160760" lon="6.3609634526"><ele></ele><time>2013-8-22T10:49:41Z</time></trkpt>
<trkpt lat="46.6165905073" lon="6.3610054459"><ele></ele><time>2013-8-22T10:49:44Z</time></trkpt>
<trkpt lat="46.6166159883" lon="6.3610267360"><ele></ele><time>2013-8-22T10:49:47Z</time></trkpt>
<trkpt lat="46.6167920921" lon="6.3610891812"><ele></ele><time>2013-8-22T10:49:50Z</time></trkpt>
<trkpt lat="46.6168442275" lon="6.3611234631"><ele></ele><time>2013-8-22T10:49:53Z</time></trkpt>
<trkpt lat="46.6171064973" lon="6.3612590823"><ele></ele><time>2013-8-22T10:49:56Z</time></trkpt>
<trkpt lat="46.6174066532" lon="6.3614936080"><ele></ele><time>2013-8-22T10:49:59Z</time></trkpt>
<trkpt lat="46.6177069768" lon="6.3616668619"><ele></ele><time>2013-8-22T10:50:2Z</time></trkpt>
<trkpt lat="46.6179032810" lon="6.3617395330"><ele></ele><time>2013-8-22T10:50:5Z</time></trkpt>
<trkpt lat="46.6179627087" lon="6.3616961986"><ele></ele><time>2013-8-22T10:50:8Z</time></trkpt>
<trkpt lat="46.6179803107" lon="6.3616492599"><ele></ele><time>2013-8-22T10:50:11Z</time></trkpt>
<trkpt lat="46.6179868486" lon="6.3616138045"><ele></ele><time>2013-8-22T10:50:14Z</time></trkpt>
<trkpt lat="46.6179976612" lon="6.3615859766"><ele></ele><time>2013-8-22T10:50:17Z</time></trkpt>
<trkpt lat="46.6180690750" lon="6.3614705577"><ele></ele><time>2013-8-22T10:50:20Z</time></trkpt>
<trkpt lat="46.6181452665" lon="6.3614087831"><ele></ele><time>2013-8-22T10:50:23Z</time></trkpt>
<trkpt lat="46.6182474419" lon="6.3613745011"><ele></ele><time>2013-8-22T10:50:26Z</time></trkpt>
<trkpt lat="46.6183404811" lon="6.3613862358"><ele></ele><time>2013-8-22T10:50:29Z</time></trkpt>
<trkpt lat="46.6184088774" lon="6.3613724057"><ele></ele><time>2013-8-22T10:50:32Z</time></trkpt>
<trkpt lat="46.6184156667" lon="6.3613729086"><ele></ele><time>2013-8-22T10:50:35Z</time></trkpt>
<trkpt lat="46.6185161658" lon="6.3613646105"><ele></ele><time>2013-8-22T10:50:38Z</time></trkpt>
<trkpt lat="46.6186843906" lon="6.3613462541"><ele></ele><time>2013-8-22T10:50:41Z</time></trkpt>
<trkpt lat="46.6187138110" lon="6.3613494392"><ele></ele><time>2013-8-22T10:50:44Z</time></trkpt>
<trkpt lat="46.6188285593" lon="6.3613099605"><ele></ele><time>2013-8-22T10:50:47Z</time></trkpt>
<trkpt lat="46.6188363545" lon="6.3613073621"><ele></ele><time>2013-8-22T10:50:50Z</time></trkpt>
<trkpt lat="46.6189451516" lon="6.3612903468"><ele></ele><time>2013-8-22T10:50:53Z</time></trkpt>
<trkpt lat="46.6189526115" lon="6.3612879999"><ele></ele><time>2013-8-22T10:50:56Z</time></trkpt>
<trkpt lat="46.6189590655" lon="6.3613033388"><ele></ele><time>2013-8-22T10:50:59Z</time></trkpt>
<trkpt lat="46.6189824510" lon="6.3612940349"><ele></ele><time>2013-8-22T10:51:2Z</time></trkpt>
<trkpt lat="46.6190357599" lon="6.3612820487"><ele></ele><time>2013-8-22T10:51:5Z</time></trkpt>
<trkpt lat="46.6190730594" lon="6.3612727448"><ele></ele><time>2013-8-22T10:51:8Z</time></trkpt>
<trkpt lat="46.6190831177" lon="6.3612814620"><ele></ele><time>2013-8-22T10:51:11Z</time></trkpt>
<trkpt lat="46.6190581396" lon="6.3612760138"><ele></ele><time>2013-8-22T10:51:14Z</time></trkpt>
<trkpt lat="46.6190531943" lon="6.3612724934"><ele></ele><time>2013-8-22T10:51:17Z</time></trkpt>
<trkpt lat="46.6189984605" lon="6.3612588309"><ele></ele><time>2013-8-22T10:51:20Z</time></trkpt>
<trkpt lat="46.6189899109" lon="6.3612586632"><ele></ele><time>2013-8-22T10:51:23Z</time></trkpt>
<trkpt lat="46.6188324988" lon="6.3612641953"><ele></ele><time>2013-8-22T10:51:26Z</time></trkpt>
<trkpt lat="46.6186993942" lon="6.3612978905"><ele></ele><time>2013-8-22T10:51:29Z</time></trkpt>
<trkpt lat="46.6186351050" lon="6.3613023330"><ele></ele><time>2013-8-22T10:51:32Z</time></trkpt>
<trkpt lat="46.6183791216" lon="6.3613330107"><ele></ele><time>2013-8-22T10:51:35Z</time></trkpt>
<trkpt lat="46.6181498766" lon="6.3613763452"><ele></ele><time>2013-8-22T10:51:38Z</time></trkpt>
<trkpt lat="46.6179713421" lon="6.3615920115"><ele></ele><time>2013-8-22T10:51:41Z</time></trkpt>
<trkpt lat="46.6181621980" lon="6.3616878167"><ele></ele><time>2013-8-22T10:51:44Z</time></trkpt>
<trkpt lat="46.6182492021" lon="6.3617078494"><ele></ele><time>2013-8-22T10:51:47Z</time></trkpt>
<trkpt lat="46.6183408163" lon="6.3617547881"><ele></ele><time>2013-8-22T10:51:50Z</time></trkpt>
<trkpt lat="46.6184770223" lon="6.3618542813"><ele></ele><time>2013-8-22T10:51:53Z</time></trkpt>
<trkpt lat="46.6187597439" lon="6.3620237634"><ele></ele><time>2013-8-22T10:51:56Z</time></trkpt>
<trkpt lat="46.6188050061" lon="6.3620158006"><ele></ele><time>2013-8-22T10:51:59Z</time></trkpt>
<trkpt lat="46.6189094447" lon="6.3618345000"><ele></ele><time>2013-8-22T10:52:2Z</time></trkpt>
<trkpt lat="46.6189540364" lon="6.3617984578"><ele></ele><time>2013-8-22T10:52:5Z</time></trkpt>
<trkpt lat="46.6190960258" lon="6.3617417961"><ele></ele><time>2013-8-22T10:52:8Z</time></trkpt>
<trkpt lat="46.6192317288" lon="6.3617198355"><ele></ele><time>2013-8-22T10:52:11Z</time></trkpt>
<trkpt lat="46.6193383466" lon="6.3617132977"><ele></ele><time>2013-8-22T10:52:14Z</time></trkpt>
<trkpt lat="46.6193546075" lon="6.3617077656"><ele></ele><time>2013-8-22T10:52:17Z</time></trkpt>
<trkpt lat="46.6195279453" lon="6.3616902474"><ele></ele><time>2013-8-22T10:52:20Z</time></trkpt>
<trkpt lat="46.6196749639" lon="6.3616634253"><ele></ele><time>2013-8-22T10:52:23Z</time></trkpt>
<trkpt lat="46.6198007762" lon="6.3616557978"><ele></ele><time>2013-8-22T10:52:26Z</time></trkpt>
<trkpt lat="46.6199032869" lon="6.3616725616"><ele></ele><time>2013-8-22T10:52:29Z</time></trkpt>
<trkpt lat="46.6200104076" lon="6.3616616651"><ele></ele><time>2013-8-22T10:52:32Z</time></trkpt>
<trkpt lat="46.6201285925" lon="6.3616788480"><ele></ele><time>2013-8-22T10:52:35Z</time></trkpt>
<trkpt lat="46.6202524770" lon="6.3616490085"><ele></ele><time>2013-8-22T10:52:38Z</time></trkpt>
<trkpt lat="46.6202838253" lon="6.3616293110"><ele></ele><time>2013-8-22T10:52:41Z</time></trkpt>
<trkpt lat="46.6203730088" lon="6.3615921792"><ele></ele><time>2013-8-22T10:52:44Z</time></trkpt>
<trkpt lat="46.6204901878" lon="6.3616064284"><ele></ele><time>2013-8-22T10:52:47Z</time></trkpt>
<trkpt lat="46.6206081212" lon="6.3615962863"><ele></ele><time>2013-8-22T10:52:50Z</time></trkpt>
<trkpt lat="46.6207283176" lon="6.3615723979"><ele></ele><time>2013-8-22T10:52:53Z</time></trkpt>
<trkpt lat="46.6208543815" lon="6.3615877368"><ele></ele><time>2013-8-22T10:52:56Z</time></trkpt>
<trkpt lat="46.6209902521" lon="6.3615284767"><ele></ele><time>2013-8-22T10:52:59Z</time></trkpt>
<trkpt lat="46.6210780945" lon="6.3615006488"><ele></ele><time>2013-8-22T10:53:2Z</time></trkpt>
<trkpt lat="46.6211865563" lon="6.3614685461"><ele></ele><time>2013-8-22T10:53:5Z</time></trkpt>
<trkpt lat="46.6212273762" lon="6.3614487648"><ele></ele><time>2013-8-22T10:53:8Z</time></trkpt>
<trkpt lat="46.6212871391" lon="6.3614141475"><ele></ele><time>2013-8-22T10:53:11Z</time></trkpt>
<trkpt lat="46.6214002110" lon="6.3614171650"><ele></ele><time>2013-8-22T10:53:14Z</time></trkpt>
<trkpt lat="46.6215689387" lon="6.3614481781"><ele></ele><time>2013-8-22T10:53:17Z</time></trkpt>
<trkpt lat="46.6216699407" lon="6.3614083640"><ele></ele><time>2013-8-22T10:53:20Z</time></trkpt>
<trkpt lat="46.6217794083" lon="6.3613415603"><ele></ele><time>2013-8-22T10:53:23Z</time></trkpt>
<trkpt lat="46.6219471302" lon="6.3611990679"><ele></ele><time>2013-8-22T10:53:26Z</time></trkpt>
<trkpt lat="46.6221190430" lon="6.3610877562"><ele></ele><time>2013-8-22T10:53:29Z</time></trkpt>
<trkpt lat="46.6222866811" lon="6.3610689808"><ele></ele><time>2013-8-22T10:53:32Z</time></trkpt>
<trkpt lat="46.6223378945" lon="6.3610745128"><ele></ele><time>2013-8-22T10:53:35Z</time></trkpt>
<trkpt lat="46.6224528942" lon="6.3610063680"><ele></ele><time>2013-8-22T10:53:38Z</time></trkpt>
<trkpt lat="46.6225481965" lon="6.3609801326"><ele></ele><time>2013-8-22T10:53:41Z</time></trkpt>
<trkpt lat="46.6225584224" lon="6.3609699905"><ele></ele><time>2013-8-22T10:53:44Z</time></trkpt>
<trkpt lat="46.6226186045" lon="6.3609832339"><ele></ele><time>2013-8-22T10:53:47Z</time></trkpt>
<trkpt lat="46.6227969714" lon="6.3609585911"><ele></ele><time>2013-8-22T10:53:50Z</time></trkpt>
<trkpt lat="46.6228550579" lon="6.3609295059"><ele></ele><time>2013-8-22T10:53:53Z</time></trkpt>
<trkpt lat="46.6229124740" lon="6.3609398995"><ele></ele><time>2013-8-22T10:53:56Z</time></trkpt>
<trkpt lat="46.6229662020" lon="6.3609438390"><ele></ele><time>2013-8-22T10:53:59Z</time></trkpt>
<trkpt lat="46.6230477579" lon="6.3609397318"><ele></ele><time>2013-8-22T10:54:2Z</time></trkpt>
<trkpt lat="46.6230858117" lon="6.3609288353"><ele></ele><time>2013-8-22T10:54:5Z</time></trkpt>
<trkpt lat="46.6231245361" lon="6.3609133288"><ele></ele><time>2013-8-22T10:54:8Z</time></trkpt>
<trkpt lat="46.6232519411" lon="6.3609077968"><ele></ele><time>2013-8-22T10:54:11Z</time></trkpt>
<trkpt lat="46.6232753266" lon="6.3609046955"><ele></ele><time>2013-8-22T10:54:14Z</time></trkpt>
<trkpt lat="46.6233272944" lon="6.3608938828"><ele></ele><time>2013-8-22T10:54:17Z</time></trkpt>
<trkpt lat="46.6234360076" lon="6.3608453516"><ele></ele><time>2013-8-22T10:54:20Z</time></trkpt>
<trkpt lat="46.6235748958" lon="6.3608017657"><ele></ele><time>2013-8-22T10:54:23Z</time></trkpt>
<trkpt lat="46.6236299649" lon="6.3607710041"><ele></ele><time>2013-8-22T10:54:26Z</time></trkpt>
<trkpt lat="46.6237164661" lon="6.3607564196"><ele></ele><time>2013-8-22T10:54:29Z</time></trkpt>
<trkpt lat="46.6237708647" lon="6.3607411645"><ele></ele><time>2013-8-22T10:54:32Z</time></trkpt>
<trkpt lat="46.6238811705" lon="6.3607368059"><ele></ele><time>2013-8-22T10:54:35Z</time></trkpt>
<trkpt lat="46.6239964217" lon="6.3607329503"><ele></ele><time>2013-8-22T10:54:38Z</time></trkpt>
<trkpt lat="46.6241292749" lon="6.3607183658"><ele></ele><time>2013-8-22T10:54:41Z</time></trkpt>
<trkpt lat="46.6242952365" lon="6.3607544079"><ele></ele><time>2013-8-22T10:54:44Z</time></trkpt>
<trkpt lat="46.6244594380" lon="6.3606716786"><ele></ele><time>2013-8-22T10:54:47Z</time></trkpt>
<trkpt lat="46.6246161796" lon="6.3606467843"><ele></ele><time>2013-8-22T10:54:50Z</time></trkpt>
<trkpt lat="46.6248307563" lon="6.3606033660"><ele></ele><time>2013-8-22T10:54:53Z</time></trkpt>
<trkpt lat="46.6249929462" lon="6.3606303558"><ele></ele><time>2013-8-22T10:54:56Z</time></trkpt>
<trkpt lat="46.6252169106" lon="6.3606297690"><ele></ele><time>2013-8-22T10:54:59Z</time></trkpt>
<trkpt lat="46.6255097743" lon="6.3606192917"><ele></ele><time>2013-8-22T10:55:2Z</time></trkpt>
<trkpt lat="46.6256966069" lon="6.3605985045"><ele></ele><time>2013-8-22T10:55:5Z</time></trkpt>
<trkpt lat="46.6259346530" lon="6.3605686650"><ele></ele><time>2013-8-22T10:55:8Z</time></trkpt>
<trkpt lat="46.6260774806" lon="6.3605498895"><ele></ele><time>2013-8-22T10:55:11Z</time></trkpt>
<trkpt lat="46.6262027062" lon="6.3604354765"><ele></ele><time>2013-8-22T10:55:14Z</time></trkpt>
<trkpt lat="46.6263244953" lon="6.3604006078"><ele></ele><time>2013-8-22T10:55:17Z</time></trkpt>
<trkpt lat="46.6264565103" lon="6.3603943214"><ele></ele><time>2013-8-22T10:55:20Z</time></trkpt>
<trkpt lat="46.6265667323" lon="6.3604110014"><ele></ele><time>2013-8-22T10:55:23Z</time></trkpt>
<trkpt lat="46.6267399024" lon="6.3604936469"><ele></ele><time>2013-8-22T10:55:26Z</time></trkpt>
<trkpt lat="46.6267730948" lon="6.3605171163"><ele></ele><time>2013-8-22T10:55:29Z</time></trkpt>
<trkpt lat="46.6269574128" lon="6.3605654798"><ele></ele><time>2013-8-22T10:55:32Z</time></trkpt>
<trkpt lat="46.6271294933" lon="6.3605732750"><ele></ele><time>2013-8-22T10:55:35Z</time></trkpt>
<trkpt lat="46.6271424014" lon="6.3605733588"><ele></ele><time>2013-8-22T10:55:38Z</time></trkpt>
<trkpt lat="46.6271696426" lon="6.3605892006"><ele></ele><time>2013-8-22T10:55:41Z</time></trkpt>
<trkpt lat="46.6273644380" lon="6.3605114166"><ele></ele><time>2013-8-22T10:55:44Z</time></trkpt>
<trkpt lat="46.6275523603" lon="6.3604602870"><ele></ele><time>2013-8-22T10:55:47Z</time></trkpt>
<trkpt lat="46.6277984530" lon="6.3603926450"><ele></ele><time>2013-8-22T10:55:50Z</time></trkpt>
<trkpt lat="46.6279947571" lon="6.3602879550"><ele></ele><time>2013-8-22T10:55:53Z</time></trkpt>
<trkpt lat="46.6281865351" lon="6.3602229953"><ele></ele><time>2013-8-22T10:55:56Z</time></trkpt>
<trkpt lat="46.6283570230" lon="6.3601666689"><ele></ele><time>2013-8-22T10:55:59Z</time></trkpt>
<trkpt lat="46.6285260860" lon="6.3601470552"><ele></ele><time>2013-8-22T10:56:2Z</time></trkpt>
<trkpt lat="46.6286470369" lon="6.3601091690"><ele></ele><time>2013-8-22T10:56:5Z</time></trkpt>
<trkpt lat="46.6286916286" lon="6.3601115998"><ele></ele><time>2013-8-22T10:56:8Z</time></trkpt>
<trkpt lat="46.6288759466" lon="6.3601490669"><ele></ele><time>2013-8-22T10:56:11Z</time></trkpt>
<trkpt lat="46.6290530562" lon="6.3601381704"><ele></ele><time>2013-8-22T10:56:14Z</time></trkpt>
<trkpt lat="46.6291243862" lon="6.3601565268"><ele></ele><time>2013-8-22T10:56:17Z</time></trkpt>
<trkpt lat="46.6291243862" lon="6.3601565268"><ele></ele><time>2013-8-22T10:56:20Z</time></trkpt>
<trkpt lat="46.6291243862" lon="6.3601565268"><ele></ele><time>2013-8-22T10:56:23Z</time></trkpt>
<trkpt lat="46.6291280743" lon="6.3601618912"><ele></ele><time>2013-8-22T10:56:26Z</time></trkpt>
<trkpt lat="46.6291443352" lon="6.3601665013"><ele></ele><time>2013-8-22T10:56:29Z</time></trkpt>
<trkpt lat="46.6291443352" lon="6.3601665013"><ele></ele><time>2013-8-22T10:56:32Z</time></trkpt>
<trkpt lat="46.6291447543" lon="6.3601653278"><ele></ele><time>2013-8-22T10:56:35Z</time></trkpt>
<trkpt lat="46.6291658767" lon="6.3601481449"><ele></ele><time>2013-8-22T10:56:38Z</time></trkpt>
<trkpt lat="46.6292310879" lon="6.3601156231"><ele></ele><time>2013-8-22T10:56:41Z</time></trkpt>
<trkpt lat="46.6296618339" lon="6.3601356559"><ele></ele><time>2013-8-22T10:56:44Z</time></trkpt>
<trkpt lat="46.6300843656" lon="6.3601350691"><ele></ele><time>2013-8-22T10:56:47Z</time></trkpt>
<trkpt lat="46.6304844338" lon="6.3600079156"><ele></ele><time>2013-8-22T10:56:50Z</time></trkpt>
<trkpt lat="46.6309100669" lon="6.3599841949"><ele></ele><time>2013-8-22T10:56:53Z</time></trkpt>
<trkpt lat="46.6310244799" lon="6.3599826861"><ele></ele><time>2013-8-22T10:56:56Z</time></trkpt>
<trkpt lat="46.6311363783" lon="6.3599997852"><ele></ele><time>2013-8-22T10:56:59Z</time></trkpt>
<trkpt lat="46.6312466003" lon="6.3600098435"><ele></ele><time>2013-8-22T10:57:2Z</time></trkpt>
<trkpt lat="46.6317086108" lon="6.3598535210"><ele></ele><time>2013-8-22T10:57:5Z</time></trkpt>
<trkpt lat="46.6321163066" lon="6.3598779961"><ele></ele><time>2013-8-22T10:57:8Z</time></trkpt>
<trkpt lat="46.6322380118" lon="6.3598246034"><ele></ele><time>2013-8-22T10:57:11Z</time></trkpt>
<trkpt lat="46.6324718669" lon="6.3596577197"><ele></ele><time>2013-8-22T10:57:14Z</time></trkpt>
<trkpt lat="46.6330605280" lon="6.3592040911"><ele></ele><time>2013-8-22T10:57:17Z</time></trkpt>
<trkpt lat="46.6333097219" lon="6.3588900212"><ele></ele><time>2013-8-22T10:57:20Z</time></trkpt>
<trkpt lat="46.6336933617" lon="6.3586126640"><ele></ele><time>2013-8-22T10:57:23Z</time></trkpt>
<trkpt lat="46.6341833677" lon="6.3584953174"><ele></ele><time>2013-8-22T10:57:26Z</time></trkpt>
<trkpt lat="46.6344782431" lon="6.3584996760"><ele></ele><time>2013-8-22T10:57:29Z</time></trkpt>
<trkpt lat="46.6347457934" lon="6.3583852630"><ele></ele><time>2013-8-22T10:57:32Z</time></trkpt>
<trkpt lat="46.6349343862" lon="6.3582570199"><ele></ele><time>2013-8-22T10:57:35Z</time></trkpt>
<trkpt lat="46.6354112327" lon="6.3581653219"><ele></ele><time>2013-8-22T10:57:38Z</time></trkpt>
<trkpt lat="46.6356310900" lon="6.3583021984"><ele></ele><time>2013-8-22T10:57:41Z</time></trkpt>
<trkpt lat="46.6360218544" lon="6.3582380768"><ele></ele><time>2013-8-22T10:57:44Z</time></trkpt>
<trkpt lat="46.6363906581" lon="6.3582405075"><ele></ele><time>2013-8-22T10:57:47Z</time></trkpt>
<trkpt lat="46.6366908140" lon="6.3580531720"><ele></ele><time>2013-8-22T10:57:50Z</time></trkpt>
<trkpt lat="46.6368434485" lon="6.3580363244"><ele></ele><time>2013-8-22T10:57:53Z</time></trkpt>
<trkpt lat="46.6370931454" lon="6.3580259308"><ele></ele><time>2013-8-22T10:57:56Z</time></trkpt>
<trkpt lat="46.6371126752" lon="6.3580153696"><ele></ele><time>2013-8-22T10:57:59Z</time></trkpt>
<trkpt lat="46.6371705942" lon="6.3579722028"><ele></ele><time>2013-8-22T10:58:2Z</time></trkpt>
<trkpt lat="46.6372916289" lon="6.3578259386"><ele></ele><time>2013-8-22T10:58:5Z</time></trkpt>
<trkpt lat="46.6372985858" lon="6.3578194007"><ele></ele><time>2013-8-22T10:58:8Z</time></trkpt>
<trkpt lat="46.6373338737" lon="6.3577921595"><ele></ele><time>2013-8-22T10:58:11Z</time></trkpt>
<trkpt lat="46.6374175251" lon="6.3576966058"><ele></ele><time>2013-8-22T10:58:14Z</time></trkpt>
<trkpt lat="46.6374830715" lon="6.3576019742"><ele></ele><time>2013-8-22T10:58:17Z</time></trkpt>
<trkpt lat="46.6375509650" lon="6.3574842922"><ele></ele><time>2013-8-22T10:58:20Z</time></trkpt>
<trkpt lat="46.6376063693" lon="6.3573728129"><ele></ele><time>2013-8-22T10:58:23Z</time></trkpt>
<trkpt lat="46.6376108956" lon="6.3573597372"><ele></ele><time>2013-8-22T10:58:26Z</time></trkpt>
<trkpt lat="46.6376621928" lon="6.3572332542"><ele></ele><time>2013-8-22T10:58:29Z</time></trkpt>
<trkpt lat="46.6376796272" lon="6.3571905904"><ele></ele><time>2013-8-22T10:58:32Z</time></trkpt>
<trkpt lat="46.6377378814" lon="6.3570421468"><ele></ele><time>2013-8-22T10:58:35Z</time></trkpt>
<trkpt lat="46.6377530526" lon="6.3569743372"><ele></ele><time>2013-8-22T10:58:38Z</time></trkpt>
<trkpt lat="46.6377609316" lon="6.3569364510"><ele></ele><time>2013-8-22T10:58:41Z</time></trkpt>
<trkpt lat="46.6377761867" lon="6.3568006642"><ele></ele><time>2013-8-22T10:58:44Z</time></trkpt>
<trkpt lat="46.6377065331" lon="6.3566652127"><ele></ele><time>2013-8-22T10:58:47Z</time></trkpt>
<trkpt lat="46.6376059502" lon="6.3566063717"><ele></ele><time>2013-8-22T10:58:50Z</time></trkpt>
<trkpt lat="46.6375207063" lon="6.3565518055"><ele></ele><time>2013-8-22T10:58:53Z</time></trkpt>
<trkpt lat="46.6374395695" lon="6.3565026037"><ele></ele><time>2013-8-22T10:58:56Z</time></trkpt>
<trkpt lat="46.6373896971" lon="6.3564679865"><ele></ele><time>2013-8-22T10:58:59Z</time></trkpt>
<trkpt lat="46.6373379808" lon="6.3564030267"><ele></ele><time>2013-8-22T10:59:2Z</time></trkpt>
<trkpt lat="46.6371621285" lon="6.3562501408"><ele></ele><time>2013-8-22T10:59:5Z</time></trkpt>
<trkpt lat="46.6370483860" lon="6.3561660703"><ele></ele><time>2013-8-22T10:59:8Z</time></trkpt>
<trkpt lat="46.6368739586" lon="6.3560261764"><ele></ele><time>2013-8-22T10:59:11Z</time></trkpt>
<trkpt lat="46.6366710328" lon="6.3559205644"><ele></ele><time>2013-8-22T10:59:14Z</time></trkpt>
<trkpt lat="46.6366531793" lon="6.3559185527"><ele></ele><time>2013-8-22T10:59:17Z</time></trkpt>
<trkpt lat="46.6366036423" lon="6.3558758050"><ele></ele><time>2013-8-22T10:59:20Z</time></trkpt>
<trkpt lat="46.6364204977" lon="6.3557241764"><ele></ele><time>2013-8-22T10:59:23Z</time></trkpt>
<trkpt lat="46.6363957711" lon="6.3557005394"><ele></ele><time>2013-8-22T10:59:26Z</time></trkpt>
<trkpt lat="46.6363559570" lon="6.3556602225"><ele></ele><time>2013-8-22T10:59:29Z</time></trkpt>
<trkpt lat="46.6362780891" lon="6.3555936702"><ele></ele><time>2013-8-22T10:59:32Z</time></trkpt>
<trkpt lat="46.6362521052" lon="6.3555678539"><ele></ele><time>2013-8-22T10:59:35Z</time></trkpt>
<trkpt lat="46.6361524444" lon="6.3554742280"><ele></ele><time>2013-8-22T10:59:38Z</time></trkpt>
<trkpt lat="46.6361105349" lon="6.3554391917"><ele></ele><time>2013-8-22T10:59:41Z</time></trkpt>
<trkpt lat="46.6360012349" lon="6.3554081786"><ele></ele><time>2013-8-22T10:59:44Z</time></trkpt>
<trkpt lat="46.6358277295" lon="6.3553479128"><ele></ele><time>2013-8-22T10:59:47Z</time></trkpt>
<trkpt lat="46.6357020847" lon="6.3552430551"><ele></ele><time>2013-8-22T10:59:50Z</time></trkpt>
<trkpt lat="46.6356398072" lon="6.3551696297"><ele></ele><time>2013-8-22T10:59:53Z</time></trkpt>
<trkpt lat="46.6355848219" lon="6.3551354315"><ele></ele><time>2013-8-22T10:59:56Z</time></trkpt>
<trkpt lat="46.6354411561" lon="6.3550480921"><ele></ele><time>2013-8-22T10:59:59Z</time></trkpt>
<trkpt lat="46.6352852527" lon="6.3549605012"><ele></ele><time>2013-8-22T11:0:2Z</time></trkpt>
<trkpt lat="46.6350762919" lon="6.3548635226"><ele></ele><time>2013-8-22T11:0:5Z</time></trkpt>
<trkpt lat="46.6348499805" lon="6.3547527976"><ele></ele><time>2013-8-22T11:0:8Z</time></trkpt>
<trkpt lat="46.6346925683" lon="6.3547047693"><ele></ele><time>2013-8-22T11:0:11Z</time></trkpt>
<trkpt lat="46.6346216574" lon="6.3546833117"><ele></ele><time>2013-8-22T11:0:14Z</time></trkpt>
<trkpt lat="46.6344364174" lon="6.3546308409"><ele></ele><time>2013-8-22T11:0:17Z</time></trkpt>
<trkpt lat="46.6343158856" lon="6.3545620255"><ele></ele><time>2013-8-22T11:0:20Z</time></trkpt>
<trkpt lat="46.6342401970" lon="6.3544954732"><ele></ele><time>2013-8-22T11:0:23Z</time></trkpt>
<trkpt lat="46.6340977885" lon="6.3543563336"><ele></ele><time>2013-8-22T11:0:26Z</time></trkpt>
<trkpt lat="46.6340391990" lon="6.3542893622"><ele></ele><time>2013-8-22T11:0:29Z</time></trkpt>
<trkpt lat="46.6340018995" lon="6.3542240672"><ele></ele><time>2013-8-22T11:0:32Z</time></trkpt>
<trkpt lat="46.6338765062" lon="6.3540014438"><ele></ele><time>2013-8-22T11:0:35Z</time></trkpt>
<trkpt lat="46.6337280627" lon="6.3537846878"><ele></ele><time>2013-8-22T11:0:38Z</time></trkpt>
<trkpt lat="46.6335274000" lon="6.3535301294"><ele></ele><time>2013-8-22T11:0:41Z</time></trkpt>
<trkpt lat="46.6333330236" lon="6.3533045724"><ele></ele><time>2013-8-22T11:0:44Z</time></trkpt>
<trkpt lat="46.6331693251" lon="6.3531240262"><ele></ele><time>2013-8-22T11:0:47Z</time></trkpt>
<trkpt lat="46.6329602804" lon="6.3528584875"><ele></ele><time>2013-8-22T11:0:50Z</time></trkpt>
<trkpt lat="46.6326814983" lon="6.3524536416"><ele></ele><time>2013-8-22T11:0:53Z</time></trkpt>
<trkpt lat="46.6323922388" lon="6.3520796411"><ele></ele><time>2013-8-22T11:0:56Z</time></trkpt>
<trkpt lat="46.6321417876" lon="6.3517330494"><ele></ele><time>2013-8-22T11:0:59Z</time></trkpt>
<trkpt lat="46.6319409572" lon="6.3513943367"><ele></ele><time>2013-8-22T11:1:2Z</time></trkpt>
<trkpt lat="46.6317885742" lon="6.3510361779"><ele></ele><time>2013-8-22T11:1:5Z</time></trkpt>
<trkpt lat="46.6317164898" lon="6.3508108724"><ele></ele><time>2013-8-22T11:1:8Z</time></trkpt>
<trkpt lat="46.6316576488" lon="6.3505998999"><ele></ele><time>2013-8-22T11:1:11Z</time></trkpt>
<trkpt lat="46.6316231154" lon="6.3505356945"><ele></ele><time>2013-8-22T11:1:14Z</time></trkpt>
<trkpt lat="46.6314702295" lon="6.3502279948"><ele></ele><time>2013-8-22T11:1:17Z</time></trkpt>
<trkpt lat="46.6312781163" lon="6.3500042818"><ele></ele><time>2013-8-22T11:1:20Z</time></trkpt>
<trkpt lat="46.6310748551" lon="6.3499279227"><ele></ele><time>2013-8-22T11:1:23Z</time></trkpt>
<trkpt lat="46.6309164371" lon="6.3498978317"><ele></ele><time>2013-8-22T11:1:26Z</time></trkpt>
<trkpt lat="46.6307933070" lon="6.3498548325"><ele></ele><time>2013-8-22T11:1:29Z</time></trkpt>
<trkpt lat="46.6307631321" lon="6.3498589396"><ele></ele><time>2013-8-22T11:1:32Z</time></trkpt>
<trkpt lat="46.6307631321" lon="6.3498589396"><ele></ele><time>2013-8-22T11:1:35Z</time></trkpt>
<trkpt lat="46.6307653952" lon="6.3497969136"><ele></ele><time>2013-8-22T11:1:38Z</time></trkpt>
<trkpt lat="46.6307293531" lon="6.3497139327"><ele></ele><time>2013-8-22T11:1:41Z</time></trkpt>
<trkpt lat="46.6307047941" lon="6.3496708497"><ele></ele><time>2013-8-22T11:1:44Z</time></trkpt>
<trkpt lat="46.6307047941" lon="6.3496708497"><ele></ele><time>2013-8-22T11:1:47Z</time></trkpt>
<trkpt lat="46.6307047941" lon="6.3496708497"><ele></ele><time>2013-8-22T11:1:50Z</time></trkpt>
<trkpt lat="46.6305317078" lon="6.3495217357"><ele></ele><time>2013-8-22T11:1:53Z</time></trkpt>
<trkpt lat="46.6303623933" lon="6.3491540216"><ele></ele><time>2013-8-22T11:1:56Z</time></trkpt>
<trkpt lat="46.6303722840" lon="6.3488889020"><ele></ele><time>2013-8-22T11:1:59Z</time></trkpt>
<trkpt lat="46.6303768102" lon="6.3488794304"><ele></ele><time>2013-8-22T11:2:2Z</time></trkpt>
<trkpt lat="46.6303747147" lon="6.3488892373"><ele></ele><time>2013-8-22T11:2:5Z</time></trkpt>
<trkpt lat="46.6303715296" lon="6.3488917518"><ele></ele><time>2013-8-22T11:2:8Z</time></trkpt>
<trkpt lat="46.6303715296" lon="6.3488917518"><ele></ele><time>2013-8-22T11:2:11Z</time></trkpt>
<trkpt lat="46.6303712782" lon="6.3488892373"><ele></ele><time>2013-8-22T11:2:14Z</time></trkpt>
<trkpt lat="46.6303712782" lon="6.3488892373"><ele></ele><time>2013-8-22T11:2:17Z</time></trkpt>
<trkpt lat="46.6303747147" lon="6.3488787599"><ele></ele><time>2013-8-22T11:2:20Z</time></trkpt>
<trkpt lat="46.6303944122" lon="6.3488584757"><ele></ele><time>2013-8-22T11:2:23Z</time></trkpt>
<trkpt lat="46.6305044666" lon="6.3488382753"><ele></ele><time>2013-8-22T11:2:26Z</time></trkpt>
<trkpt lat="46.6308246553" lon="6.3488230202"><ele></ele><time>2013-8-22T11:2:29Z</time></trkpt>
<trkpt lat="46.6309324466" lon="6.3488542009"><ele></ele><time>2013-8-22T11:2:32Z</time></trkpt>
<trkpt lat="46.6311969794" lon="6.3489796780"><ele></ele><time>2013-8-22T11:2:35Z</time></trkpt>
<trkpt lat="46.6315955389" lon="6.3492055703"><ele></ele><time>2013-8-22T11:2:38Z</time></trkpt>
<trkpt lat="46.6318960302" lon="6.3494583685"><ele></ele><time>2013-8-22T11:2:41Z</time></trkpt>
<trkpt lat="46.6320889816" lon="6.3499636296"><ele></ele><time>2013-8-22T11:2:44Z</time></trkpt>
<trkpt lat="46.6322887223" lon="6.3503169268"><ele></ele><time>2013-8-22T11:2:47Z</time></trkpt>
<trkpt lat="46.6324609704" lon="6.3505292404"><ele></ele><time>2013-8-22T11:2:50Z</time></trkpt>
<trkpt lat="46.6331196204" lon="6.3508432265"><ele></ele><time>2013-8-22T11:2:53Z</time></trkpt>
<trkpt lat="46.6332336143" lon="6.3508888241"><ele></ele><time>2013-8-22T11:2:56Z</time></trkpt>
<trkpt lat="46.6333932895" lon="6.3509841263"><ele></ele><time>2013-8-22T11:2:59Z</time></trkpt>
<trkpt lat="46.6338825412" lon="6.3514723722"><ele></ele><time>2013-8-22T11:3:2Z</time></trkpt>
<trkpt lat="46.6343828570" lon="6.3520976622"><ele></ele><time>2013-8-22T11:3:5Z</time></trkpt>
<trkpt lat="46.6346708592" lon="6.3524622750"><ele></ele><time>2013-8-22T11:3:8Z</time></trkpt>
<trkpt lat="46.6349552572" lon="6.3526819646"><ele></ele><time>2013-8-22T11:3:11Z</time></trkpt>
<trkpt lat="46.6356711555" lon="6.3530119602"><ele></ele><time>2013-8-22T11:3:14Z</time></trkpt>
<trkpt lat="46.6360046715" lon="6.3529392052"><ele></ele><time>2013-8-22T11:3:17Z</time></trkpt>
<trkpt lat="46.6363183223" lon="6.3525931165"><ele></ele><time>2013-8-22T11:3:20Z</time></trkpt>
<trkpt lat="46.6364880558" lon="6.3525537215"><ele></ele><time>2013-8-22T11:3:23Z</time></trkpt>
<trkpt lat="46.6366746370" lon="6.3525520451"><ele></ele><time>2013-8-22T11:3:26Z</time></trkpt>
<trkpt lat="46.6371792275" lon="6.3526635244"><ele></ele><time>2013-8-22T11:3:29Z</time></trkpt>
<trkpt lat="46.6373591032" lon="6.3526188489"><ele></ele><time>2013-8-22T11:3:32Z</time></trkpt>
<trkpt lat="46.6377079580" lon="6.3527734112"><ele></ele><time>2013-8-22T11:3:35Z</time></trkpt>
<trkpt lat="46.6382513568" lon="6.3531894051"><ele></ele><time>2013-8-22T11:3:38Z</time></trkpt>
<trkpt lat="46.6388469748" lon="6.3533395249"><ele></ele><time>2013-8-22T11:3:41Z</time></trkpt>
<trkpt lat="46.6393291019" lon="6.3534756470"><ele></ele><time>2013-8-22T11:3:44Z</time></trkpt>
<trkpt lat="46.6394054610" lon="6.3535608072"><ele></ele><time>2013-8-22T11:3:47Z</time></trkpt>
<trkpt lat="46.6395404097" lon="6.3537448738"><ele></ele><time>2013-8-22T11:3:50Z</time></trkpt>
<trkpt lat="46.6397398151" lon="6.3541567605"><ele></ele><time>2013-8-22T11:3:53Z</time></trkpt>
<trkpt lat="46.6401496902" lon="6.3545213733"><ele></ele><time>2013-8-22T11:3:56Z</time></trkpt>
<trkpt lat="46.6406823602" lon="6.3546172623"><ele></ele><time>2013-8-22T11:3:59Z</time></trkpt>
<trkpt lat="46.6409770679" lon="6.3547581621"><ele></ele><time>2013-8-22T11:4:2Z</time></trkpt>
<trkpt lat="46.6412664950" lon="6.3548543025"><ele></ele><time>2013-8-22T11:4:5Z</time></trkpt>
<trkpt lat="46.6419620253" lon="6.3548209425"><ele></ele><time>2013-8-22T11:4:8Z</time></trkpt>
<trkpt lat="46.6429355834" lon="6.3548765983"><ele></ele><time>2013-8-22T11:4:11Z</time></trkpt>
<trkpt lat="46.6430973541" lon="6.3548864052"><ele></ele><time>2013-8-22T11:4:14Z</time></trkpt>
<trkpt lat="46.6434087418" lon="6.3550177496"><ele></ele><time>2013-8-22T11:4:17Z</time></trkpt>
<trkpt lat="46.6442982294" lon="6.3556499965"><ele></ele><time>2013-8-22T11:4:20Z</time></trkpt>
<trkpt lat="46.6448562965" lon="6.3560089096"><ele></ele><time>2013-8-22T11:4:23Z</time></trkpt>
<trkpt lat="46.6453965940" lon="6.3563021086"><ele></ele><time>2013-8-22T11:4:26Z</time></trkpt>
<trkpt lat="46.6456849314" lon="6.3566492032"><ele></ele><time>2013-8-22T11:4:29Z</time></trkpt>
<trkpt lat="46.6460673138" lon="6.3569940347"><ele></ele><time>2013-8-22T11:4:32Z</time></trkpt>
<trkpt lat="46.6461430863" lon="6.3569922745"><ele></ele><time>2013-8-22T11:4:35Z</time></trkpt>
<trkpt lat="46.6464949585" lon="6.3569392171"><ele></ele><time>2013-8-22T11:4:38Z</time></trkpt>
<trkpt lat="46.6468962003" lon="6.3571270555"><ele></ele><time>2013-8-22T11:4:41Z</time></trkpt>
<trkpt lat="46.6470042430" lon="6.3573731482"><ele></ele><time>2013-8-22T11:4:44Z</time></trkpt>
<trkpt lat="46.6470593959" lon="6.3575883955"><ele></ele><time>2013-8-22T11:4:47Z</time></trkpt>
<trkpt lat="46.6469968669" lon="6.3576692808"><ele></ele><time>2013-8-22T11:4:50Z</time></trkpt>
<trkpt lat="46.6467206832" lon="6.3575773314"><ele></ele><time>2013-8-22T11:4:53Z</time></trkpt>
<trkpt lat="46.6464427393" lon="6.3577666786"><ele></ele><time>2013-8-22T11:4:56Z</time></trkpt>
<trkpt lat="46.6461203713" lon="6.3580462150"><ele></ele><time>2013-8-22T11:4:59Z</time></trkpt>
<trkpt lat="46.6460965667" lon="6.3581610471"><ele></ele><time>2013-8-22T11:5:2Z</time></trkpt>
<trkpt lat="46.6461430024" lon="6.3581674173"><ele></ele><time>2013-8-22T11:5:5Z</time></trkpt>
<trkpt lat="46.6463285778" lon="6.3582638931"><ele></ele><time>2013-8-22T11:5:8Z</time></trkpt>
<trkpt lat="46.6465419810" lon="6.3587044459"><ele></ele><time>2013-8-22T11:5:11Z</time></trkpt>
<trkpt lat="46.6465931945" lon="6.3589888439"><ele></ele><time>2013-8-22T11:5:14Z</time></trkpt>
<trkpt lat="46.6466001514" lon="6.3591057714"><ele></ele><time>2013-8-22T11:5:17Z</time></trkpt>
<trkpt lat="46.6466797795" lon="6.3595488388"><ele></ele><time>2013-8-22T11:5:20Z</time></trkpt>
<trkpt lat="46.6466923524" lon="6.3595798519"><ele></ele><time>2013-8-22T11:5:23Z</time></trkpt>
<trkpt lat="46.6466972977" lon="6.3596231025"><ele></ele><time>2013-8-22T11:5:26Z</time></trkpt>
<trkpt lat="46.6466969624" lon="6.3596308976"><ele></ele><time>2013-8-22T11:5:29Z</time></trkpt>
<trkpt lat="46.6466962919" lon="6.3597774971"><ele></ele><time>2013-8-22T11:5:32Z</time></trkpt>
<trkpt lat="46.6467262153" lon="6.3602017891"><ele></ele><time>2013-8-22T11:5:35Z</time></trkpt>
<trkpt lat="46.6468504351" lon="6.3606855925"><ele></ele><time>2013-8-22T11:5:38Z</time></trkpt>
<trkpt lat="46.6468679532" lon="6.3607317768"><ele></ele><time>2013-8-22T11:5:41Z</time></trkpt>
<trkpt lat="46.6470272932" lon="6.3610096369"><ele></ele><time>2013-8-22T11:5:44Z</time></trkpt>
<trkpt lat="46.6471697856" lon="6.3613293227"><ele></ele><time>2013-8-22T11:5:47Z</time></trkpt>
<trkpt lat="46.6471992061" lon="6.3615563046"><ele></ele><time>2013-8-22T11:5:50Z</time></trkpt>
<trkpt lat="46.6472848691" lon="6.3617938478"><ele></ele><time>2013-8-22T11:5:53Z</time></trkpt>
<trkpt lat="46.6474085022" lon="6.3622849435"><ele></ele><time>2013-8-22T11:5:56Z</time></trkpt>
<trkpt lat="46.6475299560" lon="6.3626739476"><ele></ele><time>2013-8-22T11:5:59Z</time></trkpt>
<trkpt lat="46.6476054769" lon="6.3632343616"><ele></ele><time>2013-8-22T11:6:2Z</time></trkpt>
<trkpt lat="46.6476971749" lon="6.3636063505"><ele></ele><time>2013-8-22T11:6:5Z</time></trkpt>
<trkpt lat="46.6479293536" lon="6.3640219253"><ele></ele><time>2013-8-22T11:6:8Z</time></trkpt>
<trkpt lat="46.6481886897" lon="6.3643582910"><ele></ele><time>2013-8-22T11:6:11Z</time></trkpt>
<trkpt lat="46.6485701501" lon="6.3648526557"><ele></ele><time>2013-8-22T11:6:14Z</time></trkpt>
<trkpt lat="46.6486273147" lon="6.3649482094"><ele></ele><time>2013-8-22T11:6:17Z</time></trkpt>
<trkpt lat="46.6487891693" lon="6.3651487883"><ele></ele><time>2013-8-22T11:6:20Z</time></trkpt>
<trkpt lat="46.6492215078" lon="6.3655346911"><ele></ele><time>2013-8-22T11:6:23Z</time></trkpt>
<trkpt lat="46.6492970288" lon="6.3655868266"><ele></ele><time>2013-8-22T11:6:26Z</time></trkpt>
<trkpt lat="46.6493463144" lon="6.3656243775"><ele></ele><time>2013-8-22T11:6:29Z</time></trkpt>
<trkpt lat="46.6496477276" lon="6.3657625951"><ele></ele><time>2013-8-22T11:6:32Z</time></trkpt>
<trkpt lat="46.6497640684" lon="6.3657884113"><ele></ele><time>2013-8-22T11:6:35Z</time></trkpt>
<trkpt lat="46.6498027928" lon="6.3660237752"><ele></ele><time>2013-8-22T11:6:38Z</time></trkpt>
<trkpt lat="46.6494713724" lon="6.3667374942"><ele></ele><time>2013-8-22T11:6:41Z</time></trkpt>
<trkpt lat="46.6493196599" lon="6.3671120815"><ele></ele><time>2013-8-22T11:6:44Z</time></trkpt>
<trkpt lat="46.6492223460" lon="6.3675701525"><ele></ele><time>2013-8-22T11:6:47Z</time></trkpt>
<trkpt lat="46.6491504293" lon="6.3678026665"><ele></ele><time>2013-8-22T11:6:50Z</time></trkpt>
<trkpt lat="46.6490505170" lon="6.3677812088"><ele></ele><time>2013-8-22T11:6:53Z</time></trkpt>
<trkpt lat="46.6490460746" lon="6.3677760959"><ele></ele><time>2013-8-22T11:6:56Z</time></trkpt>
<trkpt lat="46.6489977948" lon="6.3677689712"><ele></ele><time>2013-8-22T11:6:59Z</time></trkpt>
<trkpt lat="46.6489819530" lon="6.3677538000"><ele></ele><time>2013-8-22T11:7:2Z</time></trkpt>
<trkpt lat="46.6489819530" lon="6.3677538000"><ele></ele><time>2013-8-22T11:7:5Z</time></trkpt>
<trkpt lat="46.6489775106" lon="6.3677282352"><ele></ele><time>2013-8-22T11:7:8Z</time></trkpt>
<trkpt lat="46.6489769239" lon="6.3677216135"><ele></ele><time>2013-8-22T11:7:11Z</time></trkpt>
<trkpt lat="46.6489769239" lon="6.3677216135"><ele></ele><time>2013-8-22T11:7:14Z</time></trkpt>
<trkpt lat="46.6489712242" lon="6.3677129801"><ele></ele><time>2013-8-22T11:7:17Z</time></trkpt>
<trkpt lat="46.6489712242" lon="6.3677129801"><ele></ele><time>2013-8-22T11:7:20Z</time></trkpt>
<trkpt lat="46.6489696316" lon="6.3677116390"><ele></ele><time>2013-8-22T11:7:23Z</time></trkpt>
<trkpt lat="46.6489696316" lon="6.3677116390"><ele></ele><time>2013-8-22T11:7:26Z</time></trkpt>
<trkpt lat="46.6489696316" lon="6.3677116390"><ele></ele><time>2013-8-22T11:7:29Z</time></trkpt>
<trkpt lat="46.6489682067" lon="6.3677076157"><ele></ele><time>2013-8-22T11:7:32Z</time></trkpt>
<trkpt lat="46.6489682067" lon="6.3677076157"><ele></ele><time>2013-8-22T11:7:35Z</time></trkpt>
<trkpt lat="46.6489672009" lon="6.3677076157"><ele></ele><time>2013-8-22T11:7:38Z</time></trkpt>
<trkpt lat="46.6489508562" lon="6.3677037600"><ele></ele><time>2013-8-22T11:7:41Z</time></trkpt>
<trkpt lat="46.6489508562" lon="6.3677037600"><ele></ele><time>2013-8-22T11:7:44Z</time></trkpt>
<trkpt lat="46.6489454918" lon="6.3677017484"><ele></ele><time>2013-8-22T11:7:47Z</time></trkpt>
<trkpt lat="46.6489405464" lon="6.3676951267"><ele></ele><time>2013-8-22T11:7:50Z</time></trkpt>
<trkpt lat="46.6489405464" lon="6.3676951267"><ele></ele><time>2013-8-22T11:7:53Z</time></trkpt>
<trkpt lat="46.6489407141" lon="6.3676926959"><ele></ele><time>2013-8-22T11:7:56Z</time></trkpt>
<trkpt lat="46.6489407141" lon="6.3676926959"><ele></ele><time>2013-8-22T11:7:59Z</time></trkpt>
<trkpt lat="46.6489378642" lon="6.3676905166"><ele></ele><time>2013-8-22T11:8:2Z</time></trkpt>
<trkpt lat="46.6489378642" lon="6.3676905166"><ele></ele><time>2013-8-22T11:8:5Z</time></trkpt>
<trkpt lat="46.6489382833" lon="6.3676855713"><ele></ele><time>2013-8-22T11:8:8Z</time></trkpt>
<trkpt lat="46.6489382833" lon="6.3676855713"><ele></ele><time>2013-8-22T11:8:11Z</time></trkpt>
<trkpt lat="46.6489380319" lon="6.3676804584"><ele></ele><time>2013-8-22T11:8:14Z</time></trkpt>
<trkpt lat="46.6489378642" lon="6.3676722441"><ele></ele><time>2013-8-22T11:8:17Z</time></trkpt>
<trkpt lat="46.6489378642" lon="6.3676722441"><ele></ele><time>2013-8-22T11:8:20Z</time></trkpt>
<trkpt lat="46.6489355173" lon="6.3676679693"><ele></ele><time>2013-8-22T11:8:23Z</time></trkpt>
<trkpt lat="46.6489355173" lon="6.3676679693"><ele></ele><time>2013-8-22T11:8:26Z</time></trkpt>
<trkpt lat="46.6489348467" lon="6.3676657062"><ele></ele><time>2013-8-22T11:8:29Z</time></trkpt>
<trkpt lat="46.6489348467" lon="6.3676657062"><ele></ele><time>2013-8-22T11:8:32Z</time></trkpt>
<trkpt lat="46.6489361040" lon="6.3676697295"><ele></ele><time>2013-8-22T11:8:35Z</time></trkpt>
<trkpt lat="46.6489361040" lon="6.3676697295"><ele></ele><time>2013-8-22T11:8:38Z</time></trkpt>
<trkpt lat="46.6489367746" lon="6.3676709030"><ele></ele><time>2013-8-22T11:8:41Z</time></trkpt>
<trkpt lat="46.6489371099" lon="6.3676725794"><ele></ele><time>2013-8-22T11:8:44Z</time></trkpt>
<trkpt lat="46.6489380319" lon="6.3676644489"><ele></ele><time>2013-8-22T11:8:47Z</time></trkpt>
<trkpt lat="46.6489530355" lon="6.3676562347"><ele></ele><time>2013-8-22T11:8:50Z</time></trkpt>
<trkpt lat="46.6488970444" lon="6.3676861580"><ele></ele><time>2013-8-22T11:8:53Z</time></trkpt>
<trkpt lat="46.6488954518" lon="6.3676850684"><ele></ele><time>2013-8-22T11:8:56Z</time></trkpt>
<trkpt lat="46.6488954518" lon="6.3676850684"><ele></ele><time>2013-8-22T11:8:59Z</time></trkpt>
<trkpt lat="46.6488947812" lon="6.3676844817"><ele></ele><time>2013-8-22T11:9:2Z</time></trkpt>
<trkpt lat="46.6488947812" lon="6.3676844817"><ele></ele><time>2013-8-22T11:9:5Z</time></trkpt>
<trkpt lat="46.6488951165" lon="6.3676804584"><ele></ele><time>2013-8-22T11:9:8Z</time></trkpt>
<trkpt lat="46.6488951165" lon="6.3676804584"><ele></ele><time>2013-8-22T11:9:11Z</time></trkpt>
<trkpt lat="46.6488950327" lon="6.3676792011"><ele></ele><time>2013-8-22T11:9:14Z</time></trkpt>
<trkpt lat="46.6489018220" lon="6.3676645327"><ele></ele><time>2013-8-22T11:9:17Z</time></trkpt>
<trkpt lat="46.6489018220" lon="6.3676645327"><ele></ele><time>2013-8-22T11:9:20Z</time></trkpt>
<trkpt lat="46.6489021573" lon="6.3676648680"><ele></ele><time>2013-8-22T11:9:23Z</time></trkpt>
<trkpt lat="46.6489070188" lon="6.3676588330"><ele></ele><time>2013-8-22T11:9:26Z</time></trkpt>
<trkpt lat="46.6488993075" lon="6.3676593360"><ele></ele><time>2013-8-22T11:9:29Z</time></trkpt>
<trkpt lat="46.6488993075" lon="6.3676593360"><ele></ele><time>2013-8-22T11:9:32Z</time></trkpt>
<trkpt lat="46.6488905903" lon="6.3676563185"><ele></ele><time>2013-8-22T11:9:35Z</time></trkpt>
<trkpt lat="46.6488467529" lon="6.3676489424"><ele></ele><time>2013-8-22T11:9:38Z</time></trkpt>
<trkpt lat="46.6488467529" lon="6.3676489424"><ele></ele><time>2013-8-22T11:9:41Z</time></trkpt>
<trkpt lat="46.6488477588" lon="6.3676488586"><ele></ele><time>2013-8-22T11:9:44Z</time></trkpt>
<trkpt lat="46.6488477588" lon="6.3676488586"><ele></ele><time>2013-8-22T11:9:47Z</time></trkpt>
<trkpt lat="46.6488501057" lon="6.3676481880"><ele></ele><time>2013-8-22T11:9:50Z</time></trkpt>
<trkpt lat="46.6488501057" lon="6.3676481880"><ele></ele><time>2013-8-22T11:9:53Z</time></trkpt>
<trkpt lat="46.6488527041" lon="6.3676474337"><ele></ele><time>2013-8-22T11:9:56Z</time></trkpt>
<trkpt lat="46.6488527041" lon="6.3676505350"><ele></ele><time>2013-8-22T11:9:59Z</time></trkpt>
<trkpt lat="46.6488527041" lon="6.3676505350"><ele></ele><time>2013-8-22T11:10:2Z</time></trkpt>
<trkpt lat="46.6488568112" lon="6.3676513731"><ele></ele><time>2013-8-22T11:10:5Z</time></trkpt>
<trkpt lat="46.6488580685" lon="6.3676504511"><ele></ele><time>2013-8-22T11:10:8Z</time></trkpt>
<trkpt lat="46.6488580685" lon="6.3676504511"><ele></ele><time>2013-8-22T11:10:11Z</time></trkpt>
<trkpt lat="46.6488576494" lon="6.3676510379"><ele></ele><time>2013-8-22T11:10:14Z</time></trkpt>
<trkpt lat="46.6488576494" lon="6.3676510379"><ele></ele><time>2013-8-22T11:10:17Z</time></trkpt>
<trkpt lat="46.6488610860" lon="6.3676314242"><ele></ele><time>2013-8-22T11:10:20Z</time></trkpt>
<trkpt lat="46.6488619242" lon="6.3676250540"><ele></ele><time>2013-8-22T11:10:23Z</time></trkpt>
<trkpt lat="46.6488619242" lon="6.3676250540"><ele></ele><time>2013-8-22T11:10:26Z</time></trkpt>
<trkpt lat="46.6488553863" lon="6.3676440809"><ele></ele><time>2013-8-22T11:10:29Z</time></trkpt>
<trkpt lat="46.6488617565" lon="6.3676788658"><ele></ele><time>2013-8-22T11:10:32Z</time></trkpt>
<trkpt lat="46.6488617565" lon="6.3676788658"><ele></ele><time>2013-8-22T11:10:35Z</time></trkpt>
<trkpt lat="46.6488617565" lon="6.3676788658"><ele></ele><time>2013-8-22T11:10:38Z</time></trkpt>
<trkpt lat="46.6488648579" lon="6.3676808774"><ele></ele><time>2013-8-22T11:10:41Z</time></trkpt>
<trkpt lat="46.6488648579" lon="6.3676808774"><ele></ele><time>2013-8-22T11:10:44Z</time></trkpt>
<trkpt lat="46.6488648579" lon="6.3676808774"><ele></ele><time>2013-8-22T11:10:47Z</time></trkpt>
<trkpt lat="46.6489714757" lon="6.3677310012"><ele></ele><time>2013-8-22T11:10:50Z</time></trkpt>
<trkpt lat="46.6490593180" lon="6.3678161614"><ele></ele><time>2013-8-22T11:10:53Z</time></trkpt>
<trkpt lat="46.6490593180" lon="6.3678161614"><ele></ele><time>2013-8-22T11:10:56Z</time></trkpt>
<trkpt lat="46.6491523571" lon="6.3676953781"><ele></ele><time>2013-8-22T11:10:59Z</time></trkpt>
<trkpt lat="46.6491833702" lon="6.3675981481"><ele></ele><time>2013-8-22T11:11:2Z</time></trkpt>
<trkpt lat="46.6493664309" lon="6.3669985905"><ele></ele><time>2013-8-22T11:11:5Z</time></trkpt>
<trkpt lat="46.6496084165" lon="6.3665927388"><ele></ele><time>2013-8-22T11:11:8Z</time></trkpt>
<trkpt lat="46.6497912258" lon="6.3662157208"><ele></ele><time>2013-8-22T11:11:11Z</time></trkpt>
<trkpt lat="46.6498275194" lon="6.3659024052"><ele></ele><time>2013-8-22T11:11:14Z</time></trkpt>
<trkpt lat="46.6495662555" lon="6.3657084480"><ele></ele><time>2013-8-22T11:11:17Z</time></trkpt>
<trkpt lat="46.6493620723" lon="6.3656187616"><ele></ele><time>2013-8-22T11:11:20Z</time></trkpt>
<trkpt lat="46.6493113618" lon="6.3656134810"><ele></ele><time>2013-8-22T11:11:23Z</time></trkpt>
<trkpt lat="46.6493014712" lon="6.3656151574"><ele></ele><time>2013-8-22T11:11:26Z</time></trkpt>
<trkpt lat="46.6492103599" lon="6.3655512035"><ele></ele><time>2013-8-22T11:11:29Z</time></trkpt>
<trkpt lat="46.6489051748" lon="6.3653131574"><ele></ele><time>2013-8-22T11:11:32Z</time></trkpt>
<trkpt lat="46.6486617643" lon="6.3650271669"><ele></ele><time>2013-8-22T11:11:35Z</time></trkpt>
<trkpt lat="46.6483565792" lon="6.3645742927"><ele></ele><time>2013-8-22T11:11:38Z</time></trkpt>
<trkpt lat="46.6480309423" lon="6.3642105181"><ele></ele><time>2013-8-22T11:11:41Z</time></trkpt>
<trkpt lat="46.6478352249" lon="6.3638796844"><ele></ele><time>2013-8-22T11:11:44Z</time></trkpt>
<trkpt lat="46.6476102546" lon="6.3632875029"><ele></ele><time>2013-8-22T11:11:47Z</time></trkpt>
<trkpt lat="46.6475183889" lon="6.3626158610"><ele></ele><time>2013-8-22T11:11:50Z</time></trkpt>
<trkpt lat="46.6474225000" lon="6.3623127714"><ele></ele><time>2013-8-22T11:11:53Z</time></trkpt>
<trkpt lat="46.6473194025" lon="6.3619860448"><ele></ele><time>2013-8-22T11:11:56Z</time></trkpt>
<trkpt lat="46.6472437140" lon="6.3616991322"><ele></ele><time>2013-8-22T11:11:59Z</time></trkpt>
<trkpt lat="46.6471699532" lon="6.3615405466"><ele></ele><time>2013-8-22T11:12:2Z</time></trkpt>
<trkpt lat="46.6471554525" lon="6.3614884950"><ele></ele><time>2013-8-22T11:12:5Z</time></trkpt>
<trkpt lat="46.6470826138" lon="6.3612939510"><ele></ele><time>2013-8-22T11:12:8Z</time></trkpt>
<trkpt lat="46.6470632516" lon="6.3612083718"><ele></ele><time>2013-8-22T11:12:11Z</time></trkpt>
<trkpt lat="46.6469531134" lon="6.3610052783"><ele></ele><time>2013-8-22T11:12:14Z</time></trkpt>
<trkpt lat="46.6468975414" lon="6.3608031068"><ele></ele><time>2013-8-22T11:12:17Z</time></trkpt>
<trkpt lat="46.6468446516" lon="6.3606394920"><ele></ele><time>2013-8-22T11:12:20Z</time></trkpt>
<trkpt lat="46.6467704717" lon="6.3604522403"><ele></ele><time>2013-8-22T11:12:23Z</time></trkpt>
<trkpt lat="46.6467702202" lon="6.3604317047"><ele></ele><time>2013-8-22T11:12:26Z</time></trkpt>
<trkpt lat="46.6467620898" lon="6.3602260966"><ele></ele><time>2013-8-22T11:12:29Z</time></trkpt>
<trkpt lat="46.6468004789" lon="6.3600570336"><ele></ele><time>2013-8-22T11:12:32Z</time></trkpt>
<trkpt lat="46.6467499360" lon="6.3599202409"><ele></ele><time>2013-8-22T11:12:35Z</time></trkpt>
<trkpt lat="46.6466886643" lon="6.3596878946"><ele></ele><time>2013-8-22T11:12:38Z</time></trkpt>
<trkpt lat="46.6466838866" lon="6.3596570492"><ele></ele><time>2013-8-22T11:12:41Z</time></trkpt>
<trkpt lat="46.6466750018" lon="6.3596199173"><ele></ele><time>2013-8-22T11:12:44Z</time></trkpt>
<trkpt lat="46.6466717329" lon="6.3596090209"><ele></ele><time>2013-8-22T11:12:47Z</time></trkpt>
<trkpt lat="46.6466199327" lon="6.3593900017"><ele></ele><time>2013-8-22T11:12:50Z</time></trkpt>
<trkpt lat="46.6466015764" lon="6.3592022471"><ele></ele><time>2013-8-22T11:12:53Z</time></trkpt>
<trkpt lat="46.6465978883" lon="6.3591817953"><ele></ele><time>2013-8-22T11:12:56Z</time></trkpt>
<trkpt lat="46.6465897579" lon="6.3589419052"><ele></ele><time>2013-8-22T11:12:59Z</time></trkpt>
<trkpt lat="46.6465524584" lon="6.3587469421"><ele></ele><time>2013-8-22T11:13:2Z</time></trkpt>
<trkpt lat="46.6464745905" lon="6.3585158531"><ele></ele><time>2013-8-22T11:13:5Z</time></trkpt>
<trkpt lat="46.6463703196" lon="6.3583078980"><ele></ele><time>2013-8-22T11:13:8Z</time></trkpt>
<trkpt lat="46.6462842375" lon="6.3582151942"><ele></ele><time>2013-8-22T11:13:11Z</time></trkpt>
<trkpt lat="46.6462657135" lon="6.3582045492"><ele></ele><time>2013-8-22T11:13:14Z</time></trkpt>
<trkpt lat="46.6461154260" lon="6.3581785653"><ele></ele><time>2013-8-22T11:13:17Z</time></trkpt>
<trkpt lat="46.6459588520" lon="6.3581557665"><ele></ele><time>2013-8-22T11:13:20Z</time></trkpt>
<trkpt lat="46.6457389947" lon="6.3582493924"><ele></ele><time>2013-8-22T11:13:23Z</time></trkpt>
<trkpt lat="46.6454747133" lon="6.3583482150"><ele></ele><time>2013-8-22T11:13:26Z</time></trkpt>
<trkpt lat="46.6452489886" lon="6.3584194612"><ele></ele><time>2013-8-22T11:13:29Z</time></trkpt>
<trkpt lat="46.6450633295" lon="6.3585248217"><ele></ele><time>2013-8-22T11:13:32Z</time></trkpt>
<trkpt lat="46.6449656803" lon="6.3585406635"><ele></ele><time>2013-8-22T11:13:35Z</time></trkpt>
<trkpt lat="46.6446624231" lon="6.3586501312"><ele></ele><time>2013-8-22T11:13:38Z</time></trkpt>
<trkpt lat="46.6444421466" lon="6.3587643765"><ele></ele><time>2013-8-22T11:13:41Z</time></trkpt>
<trkpt lat="46.6441849060" lon="6.3588922005"><ele></ele><time>2013-8-22T11:13:44Z</time></trkpt>
<trkpt lat="46.6441109776" lon="6.3589278236"><ele></ele><time>2013-8-22T11:13:47Z</time></trkpt>
<trkpt lat="46.6441081278" lon="6.3589269016"><ele></ele><time>2013-8-22T11:13:50Z</time></trkpt>
<trkpt lat="46.6441081278" lon="6.3589269016"><ele></ele><time>2013-8-22T11:13:53Z</time></trkpt>
<trkpt lat="46.6441081278" lon="6.3589269016"><ele></ele><time>2013-8-22T11:13:56Z</time></trkpt>
<trkpt lat="46.6440269072" lon="6.3589379657"><ele></ele><time>2013-8-22T11:13:59Z</time></trkpt>
<trkpt lat="46.6436161101" lon="6.3589152507"><ele></ele><time>2013-8-22T11:14:2Z</time></trkpt>
<trkpt lat="46.6435751226" lon="6.3589082099"><ele></ele><time>2013-8-22T11:14:5Z</time></trkpt>
<trkpt lat="46.6434498969" lon="6.3589165080"><ele></ele><time>2013-8-22T11:14:8Z</time></trkpt>
<trkpt lat="46.6429265309" lon="6.3590161689"><ele></ele><time>2013-8-22T11:14:11Z</time></trkpt>
<trkpt lat="46.6426227707" lon="6.3591202721"><ele></ele><time>2013-8-22T11:14:14Z</time></trkpt>
<trkpt lat="46.6423037555" lon="6.3592114672"><ele></ele><time>2013-8-22T11:14:17Z</time></trkpt>
<trkpt lat="46.6422019992" lon="6.3592291530"><ele></ele><time>2013-8-22T11:14:20Z</time></trkpt>
<trkpt lat="46.6419981513" lon="6.3592095394"><ele></ele><time>2013-8-22T11:14:23Z</time></trkpt>
<trkpt lat="46.6417344566" lon="6.3591109682"><ele></ele><time>2013-8-22T11:14:26Z</time></trkpt>
<trkpt lat="46.6415456124" lon="6.3589968905"><ele></ele><time>2013-8-22T11:14:29Z</time></trkpt>
<trkpt lat="46.6413084883" lon="6.3587490376"><ele></ele><time>2013-8-22T11:14:32Z</time></trkpt>
<trkpt lat="46.6408799216" lon="6.3585578464"><ele></ele><time>2013-8-22T11:14:35Z</time></trkpt>
<trkpt lat="46.6406105272" lon="6.3584400807"><ele></ele><time>2013-8-22T11:14:38Z</time></trkpt>
<trkpt lat="46.6402829625" lon="6.3585516438"><ele></ele><time>2013-8-22T11:14:41Z</time></trkpt>
<trkpt lat="46.6398631968" lon="6.3591210265"><ele></ele><time>2013-8-22T11:14:44Z</time></trkpt>
<trkpt lat="46.6397398151" lon="6.3593781833"><ele></ele><time>2013-8-22T11:14:47Z</time></trkpt>
<trkpt lat="46.6395409964" lon="6.3598070852"><ele></ele><time>2013-8-22T11:14:50Z</time></trkpt>
<trkpt lat="46.6391061433" lon="6.3602913078"><ele></ele><time>2013-8-22T11:14:53Z</time></trkpt>
<trkpt lat="46.6386428755" lon="6.3609322719"><ele></ele><time>2013-8-22T11:14:56Z</time></trkpt>
<trkpt lat="46.6383459046" lon="6.3612920232"><ele></ele><time>2013-8-22T11:14:59Z</time></trkpt>
<trkpt lat="46.6381829605" lon="6.3616326638"><ele></ele><time>2013-8-22T11:15:2Z</time></trkpt>
<trkpt lat="46.6378781945" lon="6.3621241786"><ele></ele><time>2013-8-22T11:15:5Z</time></trkpt>
<trkpt lat="46.6378163360" lon="6.3621666748"><ele></ele><time>2013-8-22T11:15:8Z</time></trkpt>
<trkpt lat="46.6373821534" lon="6.3624001946"><ele></ele><time>2013-8-22T11:15:11Z</time></trkpt>
<trkpt lat="46.6372596100" lon="6.3625386637"><ele></ele><time>2013-8-22T11:15:14Z</time></trkpt>
<trkpt lat="46.6370149422" lon="6.3631103095"><ele></ele><time>2013-8-22T11:15:17Z</time></trkpt>
<trkpt lat="46.6368599609" lon="6.3635314163"><ele></ele><time>2013-8-22T11:15:20Z</time></trkpt>
<trkpt lat="46.6366900597" lon="6.3638620824"><ele></ele><time>2013-8-22T11:15:23Z</time></trkpt>
<trkpt lat="46.6366015468" lon="6.3640704565"><ele></ele><time>2013-8-22T11:15:26Z</time></trkpt>
<trkpt lat="46.6364588030" lon="6.3643865380"><ele></ele><time>2013-8-22T11:15:29Z</time></trkpt>
<trkpt lat="46.6363738943" lon="6.3645268511"><ele></ele><time>2013-8-22T11:15:32Z</time></trkpt>
<trkpt lat="46.6360837966" lon="6.3648716826"><ele></ele><time>2013-8-22T11:15:35Z</time></trkpt>
<trkpt lat="46.6359544639" lon="6.3651181106"><ele></ele><time>2013-8-22T11:15:38Z</time></trkpt>
<trkpt lat="46.6357606743" lon="6.3658381160"><ele></ele><time>2013-8-22T11:15:41Z</time></trkpt>
<trkpt lat="46.6356627736" lon="6.3661767449"><ele></ele><time>2013-8-22T11:15:44Z</time></trkpt>
<trkpt lat="46.6355833970" lon="6.3663713727"><ele></ele><time>2013-8-22T11:15:47Z</time></trkpt>
<trkpt lat="46.6350603662" lon="6.3670457806"><ele></ele><time>2013-8-22T11:15:50Z</time></trkpt>
<trkpt lat="46.6347796563" lon="6.3674274087"><ele></ele><time>2013-8-22T11:15:53Z</time></trkpt>
<trkpt lat="46.6344935820" lon="6.3677046821"><ele></ele><time>2013-8-22T11:15:56Z</time></trkpt>
<trkpt lat="46.6341853794" lon="6.3677819632"><ele></ele><time>2013-8-22T11:15:59Z</time></trkpt>
<trkpt lat="46.6337913461" lon="6.3675996568"><ele></ele><time>2013-8-22T11:16:2Z</time></trkpt>
<trkpt lat="46.6332088038" lon="6.3670534920"><ele></ele><time>2013-8-22T11:16:5Z</time></trkpt>
<trkpt lat="46.6329253279" lon="6.3669840060"><ele></ele><time>2013-8-22T11:16:8Z</time></trkpt>
<trkpt lat="46.6328187939" lon="6.3669871911"><ele></ele><time>2013-8-22T11:16:11Z</time></trkpt>
<trkpt lat="46.6325868666" lon="6.3670446910"><ele></ele><time>2013-8-22T11:16:14Z</time></trkpt>
<trkpt lat="46.6324591264" lon="6.3670869358"><ele></ele><time>2013-8-22T11:16:17Z</time></trkpt>
<trkpt lat="46.6323082522" lon="6.3671364728"><ele></ele><time>2013-8-22T11:16:20Z</time></trkpt>
<trkpt lat="46.6320474073" lon="6.3671975769"><ele></ele><time>2013-8-22T11:16:23Z</time></trkpt>
<trkpt lat="46.6316882428" lon="6.3671455253"><ele></ele><time>2013-8-22T11:16:26Z</time></trkpt>
<trkpt lat="46.6315145697" lon="6.3670952339"><ele></ele><time>2013-8-22T11:16:29Z</time></trkpt>
<trkpt lat="46.6314315051" lon="6.3670638017"><ele></ele><time>2013-8-22T11:16:32Z</time></trkpt>
<trkpt lat="46.6311642062" lon="6.3669287693"><ele></ele><time>2013-8-22T11:16:35Z</time></trkpt>
<trkpt lat="46.6308861785" lon="6.3669564296"><ele></ele><time>2013-8-22T11:16:38Z</time></trkpt>
<trkpt lat="46.6304381657" lon="6.3673453499"><ele></ele><time>2013-8-22T11:16:41Z</time></trkpt>
<trkpt lat="46.6303763911" lon="6.3674005028"><ele></ele><time>2013-8-22T11:16:44Z</time></trkpt>
<trkpt lat="46.6302642412" lon="6.3675463479"><ele></ele><time>2013-8-22T11:16:47Z</time></trkpt>
<trkpt lat="46.6300625727" lon="6.3680744078"><ele></ele><time>2013-8-22T11:16:50Z</time></trkpt>
<trkpt lat="46.6300334036" lon="6.3682604022"><ele></ele><time>2013-8-22T11:16:53Z</time></trkpt>
<trkpt lat="46.6297187470" lon="6.3690296933"><ele></ele><time>2013-8-22T11:16:56Z</time></trkpt>
<trkpt lat="46.6293065250" lon="6.3700491842"><ele></ele><time>2013-8-22T11:16:59Z</time></trkpt>
<trkpt lat="46.6292007454" lon="6.3703577220"><ele></ele><time>2013-8-22T11:17:2Z</time></trkpt>
<trkpt lat="46.6289403196" lon="6.3712576870"><ele></ele><time>2013-8-22T11:17:5Z</time></trkpt>
<trkpt lat="46.6288034432" lon="6.3718720805"><ele></ele><time>2013-8-22T11:17:8Z</time></trkpt>
<trkpt lat="46.6286680754" lon="6.3720512018"><ele></ele><time>2013-8-22T11:17:11Z</time></trkpt>
<trkpt lat="46.6284980066" lon="6.3721654471"><ele></ele><time>2013-8-22T11:17:14Z</time></trkpt>
<trkpt lat="46.6283281054" lon="6.3722317480"><ele></ele><time>2013-8-22T11:17:17Z</time></trkpt>
<trkpt lat="46.6282500699" lon="6.3722444884"><ele></ele><time>2013-8-22T11:17:20Z</time></trkpt>
<trkpt lat="46.6280134488" lon="6.3721352722"><ele></ele><time>2013-8-22T11:17:23Z</time></trkpt>
<trkpt lat="46.6279419512" lon="6.3720320910"><ele></ele><time>2013-8-22T11:17:26Z</time></trkpt>
<trkpt lat="46.6277599800" lon="6.3715848327"><ele></ele><time>2013-8-22T11:17:29Z</time></trkpt>
<trkpt lat="46.6275243647" lon="6.3709590398"><ele></ele><time>2013-8-22T11:17:32Z</time></trkpt>
<trkpt lat="46.6273873206" lon="6.3707634900"><ele></ele><time>2013-8-22T11:17:35Z</time></trkpt>
<trkpt lat="46.6273011547" lon="6.3706787489"><ele></ele><time>2013-8-22T11:17:38Z</time></trkpt>
<trkpt lat="46.6269675549" lon="6.3704191614"><ele></ele><time>2013-8-22T11:17:41Z</time></trkpt>
<trkpt lat="46.6265820712" lon="6.3702410460"><ele></ele><time>2013-8-22T11:17:44Z</time></trkpt>
<trkpt lat="46.6264961567" lon="6.3702029083"><ele></ele><time>2013-8-22T11:17:47Z</time></trkpt>
<trkpt lat="46.6263528261" lon="6.3701573946"><ele></ele><time>2013-8-22T11:17:50Z</time></trkpt>
<trkpt lat="46.6259499919" lon="6.3700416405"><ele></ele><time>2013-8-22T11:17:53Z</time></trkpt>
<trkpt lat="46.6259022988" lon="6.3700211048"><ele></ele><time>2013-8-22T11:17:56Z</time></trkpt>
<trkpt lat="46.6255997121" lon="6.3698755950"><ele></ele><time>2013-8-22T11:17:59Z</time></trkpt>
<trkpt lat="46.6249926109" lon="6.3697397243"><ele></ele><time>2013-8-22T11:18:2Z</time></trkpt>
<trkpt lat="46.6247523855" lon="6.3697154168"><ele></ele><time>2013-8-22T11:18:5Z</time></trkpt>
<trkpt lat="46.6245932970" lon="6.3696772791"><ele></ele><time>2013-8-22T11:18:8Z</time></trkpt>
<trkpt lat="46.6241823323" lon="6.3697035983"><ele></ele><time>2013-8-22T11:18:11Z</time></trkpt>
<trkpt lat="46.6235193238" lon="6.3700850587"><ele></ele><time>2013-8-22T11:18:14Z</time></trkpt>
<trkpt lat="46.6229417268" lon="6.3700791076"><ele></ele><time>2013-8-22T11:18:17Z</time></trkpt>
<trkpt lat="46.6228189319" lon="6.3700713124"><ele></ele><time>2013-8-22T11:18:20Z</time></trkpt>
<trkpt lat="46.6221296880" lon="6.3701065164"><ele></ele><time>2013-8-22T11:18:23Z</time></trkpt>
<trkpt lat="46.6213104408" lon="6.3698989805"><ele></ele><time>2013-8-22T11:18:26Z</time></trkpt>
<trkpt lat="46.6203050315" lon="6.3696191087"><ele></ele><time>2013-8-22T11:18:29Z</time></trkpt>
<trkpt lat="46.6199037898" lon="6.3697118126"><ele></ele><time>2013-8-22T11:18:32Z</time></trkpt>
<trkpt lat="46.6195903905" lon="6.3699331786"><ele></ele><time>2013-8-22T11:18:35Z</time></trkpt>
<trkpt lat="46.6189991310" lon="6.3701089472"><ele></ele><time>2013-8-22T11:18:38Z</time></trkpt>
<trkpt lat="46.6185846459" lon="6.3699305803"><ele></ele><time>2013-8-22T11:18:41Z</time></trkpt>
<trkpt lat="46.6182034370" lon="6.3697663788"><ele></ele><time>2013-8-22T11:18:44Z</time></trkpt>
<trkpt lat="46.6180589329" lon="6.3700528722"><ele></ele><time>2013-8-22T11:18:47Z</time></trkpt>
<trkpt lat="46.6180435941" lon="6.3701060973"><ele></ele><time>2013-8-22T11:18:50Z</time></trkpt>
<trkpt lat="46.6180435941" lon="6.3701060973"><ele></ele><time>2013-8-22T11:18:53Z</time></trkpt>
<trkpt lat="46.6179290973" lon="6.3701060973"><ele></ele><time>2013-8-22T11:18:56Z</time></trkpt>
<trkpt lat="46.6179309413" lon="6.3701407984"><ele></ele><time>2013-8-22T11:18:59Z</time></trkpt>
<trkpt lat="46.6180509701" lon="6.3703972846"><ele></ele><time>2013-8-22T11:19:2Z</time></trkpt>
<trkpt lat="46.6182950512" lon="6.3706862088"><ele></ele><time>2013-8-22T11:19:5Z</time></trkpt>
<trkpt lat="46.6185954586" lon="6.3708249293"><ele></ele><time>2013-8-22T11:19:8Z</time></trkpt>
<trkpt lat="46.6189397871" lon="6.3710429426"><ele></ele><time>2013-8-22T11:19:11Z</time></trkpt>
<trkpt lat="46.6194811743" lon="6.3721518684"><ele></ele><time>2013-8-22T11:19:14Z</time></trkpt>
<trkpt lat="46.6198627185" lon="6.3726873882"><ele></ele><time>2013-8-22T11:19:17Z</time></trkpt>
<trkpt lat="46.6197871976" lon="6.3728370052"><ele></ele><time>2013-8-22T11:19:20Z</time></trkpt>
<trkpt lat="46.6195355728" lon="6.3728186488"><ele></ele><time>2013-8-22T11:19:23Z</time></trkpt>
<trkpt lat="46.6191198304" lon="6.3727979455"><ele></ele><time>2013-8-22T11:19:26Z</time></trkpt>
<trkpt lat="46.6188004799" lon="6.3729417790"><ele></ele><time>2013-8-22T11:19:29Z</time></trkpt>
<trkpt lat="46.6186182573" lon="6.3728951756"><ele></ele><time>2013-8-22T11:19:32Z</time></trkpt>
<trkpt lat="46.6183216218" lon="6.3727818523"><ele></ele><time>2013-8-22T11:19:35Z</time></trkpt>
<trkpt lat="46.6181289218" lon="6.3728678506"><ele></ele><time>2013-8-22T11:19:38Z</time></trkpt>
<trkpt lat="46.6180581786" lon="6.3729162142"><ele></ele><time>2013-8-22T11:19:41Z</time></trkpt>
<trkpt lat="46.6179531533" lon="6.3731139433"><ele></ele><time>2013-8-22T11:19:44Z</time></trkpt>
<trkpt lat="46.6179850046" lon="6.3731883746"><ele></ele><time>2013-8-22T11:19:47Z</time></trkpt>
<trkpt lat="46.6179850046" lon="6.3731883746"><ele></ele><time>2013-8-22T11:19:50Z</time></trkpt>
<trkpt lat="46.6182309296" lon="6.3735311944"><ele></ele><time>2013-8-22T11:19:53Z</time></trkpt>
<trkpt lat="46.6184590850" lon="6.3743195962"><ele></ele><time>2013-8-22T11:19:56Z</time></trkpt>
<trkpt lat="46.6184678022" lon="6.3743542135"><ele></ele><time>2013-8-22T11:19:59Z</time></trkpt>
<trkpt lat="46.6182979848" lon="6.3744811993"><ele></ele><time>2013-8-22T11:20:2Z</time></trkpt>
<trkpt lat="46.6177675780" lon="6.3745692093"><ele></ele><time>2013-8-22T11:20:5Z</time></trkpt>
<trkpt lat="46.6176754609" lon="6.3745511882"><ele></ele><time>2013-8-22T11:20:8Z</time></trkpt>
<trkpt lat="46.6168866400" lon="6.3743682951"><ele></ele><time>2013-8-22T11:20:11Z</time></trkpt>
<trkpt lat="46.6165586561" lon="6.3742373697"><ele></ele><time>2013-8-22T11:20:14Z</time></trkpt>
<trkpt lat="46.6160825640" lon="6.3742243778"><ele></ele><time>2013-8-22T11:20:17Z</time></trkpt>
<trkpt lat="46.6159863397" lon="6.3743506093"><ele></ele><time>2013-8-22T11:20:20Z</time></trkpt>
<trkpt lat="46.6158141755" lon="6.3744190894"><ele></ele><time>2013-8-22T11:20:23Z</time></trkpt>
<trkpt lat="46.6154550109" lon="6.3746601529"><ele></ele><time>2013-8-22T11:20:26Z</time></trkpt>
<trkpt lat="46.6151367500" lon="6.3748749811"><ele></ele><time>2013-8-22T11:20:29Z</time></trkpt>
<trkpt lat="46.6144060157" lon="6.3750084210"><ele></ele><time>2013-8-22T11:20:32Z</time></trkpt>
<trkpt lat="46.6137703322" lon="6.3748717960"><ele></ele><time>2013-8-22T11:20:35Z</time></trkpt>
<trkpt lat="46.6134311166" lon="6.3748090155"><ele></ele><time>2013-8-22T11:20:38Z</time></trkpt>
<trkpt lat="46.6128354985" lon="6.3749295473"><ele></ele><time>2013-8-22T11:20:41Z</time></trkpt>
<trkpt lat="46.6123935208" lon="6.3750700280"><ele></ele><time>2013-8-22T11:20:44Z</time></trkpt>
<trkpt lat="46.6117348708" lon="6.3755928073"><ele></ele><time>2013-8-22T11:20:47Z</time></trkpt>
<trkpt lat="46.6114154365" lon="6.3756648917"><ele></ele><time>2013-8-22T11:20:50Z</time></trkpt>
<trkpt lat="46.6108996980" lon="6.3760418259"><ele></ele><time>2013-8-22T11:20:53Z</time></trkpt>
<trkpt lat="46.6101966240" lon="6.3764335960"><ele></ele><time>2013-8-22T11:20:56Z</time></trkpt>
<trkpt lat="46.6090952419" lon="6.3767329976"><ele></ele><time>2013-8-22T11:20:59Z</time></trkpt>
<trkpt lat="46.6083692014" lon="6.3770942576"><ele></ele><time>2013-8-22T11:21:2Z</time></trkpt>
<trkpt lat="46.6081370227" lon="6.3771919068"><ele></ele><time>2013-8-22T11:21:5Z</time></trkpt>
<trkpt lat="46.6078850627" lon="6.3772022165"><ele></ele><time>2013-8-22T11:21:8Z</time></trkpt>
<trkpt lat="46.6078833863" lon="6.3772004563"><ele></ele><time>2013-8-22T11:21:11Z</time></trkpt>
<trkpt lat="46.6078688018" lon="6.3771957625"><ele></ele><time>2013-8-22T11:21:14Z</time></trkpt>
<trkpt lat="46.6077670455" lon="6.3772238418"><ele></ele><time>2013-8-22T11:21:17Z</time></trkpt>
<trkpt lat="46.6076315101" lon="6.3772608899"><ele></ele><time>2013-8-22T11:21:20Z</time></trkpt>
<trkpt lat="46.6073798854" lon="6.3771075848"><ele></ele><time>2013-8-22T11:21:23Z</time></trkpt>
<trkpt lat="46.6072601080" lon="6.3770235144"><ele></ele><time>2013-8-22T11:21:26Z</time></trkpt>
<trkpt lat="46.6072410811" lon="6.3769775815"><ele></ele><time>2013-8-22T11:21:29Z</time></trkpt>
<trkpt lat="46.6071581002" lon="6.3768826984"><ele></ele><time>2013-8-22T11:21:32Z</time></trkpt>
<trkpt lat="46.6071581002" lon="6.3768826984"><ele></ele><time>2013-8-22T11:21:35Z</time></trkpt>
<trkpt lat="46.6071581002" lon="6.3768826984"><ele></ele><time>2013-8-22T11:21:38Z</time></trkpt>
<trkpt lat="46.6070446093" lon="6.3768010587"><ele></ele><time>2013-8-22T11:21:41Z</time></trkpt>
<trkpt lat="46.6067554336" lon="6.3767169882"><ele></ele><time>2013-8-22T11:21:44Z</time></trkpt>
<trkpt lat="46.6063767392" lon="6.3766645174"><ele></ele><time>2013-8-22T11:21:47Z</time></trkpt>
<trkpt lat="46.6061834525" lon="6.3765583187"><ele></ele><time>2013-8-22T11:21:50Z</time></trkpt>
<trkpt lat="46.6058320832" lon="6.3763055205"><ele></ele><time>2013-8-22T11:21:53Z</time></trkpt>
<trkpt lat="46.6055073682" lon="6.3761194423"><ele></ele><time>2013-8-22T11:21:56Z</time></trkpt>
<trkpt lat="46.6054643691" lon="6.3760954700"><ele></ele><time>2013-8-22T11:21:59Z</time></trkpt>
<trkpt lat="46.6049512289" lon="6.3757666480"><ele></ele><time>2013-8-22T11:22:2Z</time></trkpt>
<trkpt lat="46.6049106605" lon="6.3757400773"><ele></ele><time>2013-8-22T11:22:5Z</time></trkpt>
<trkpt lat="46.6046126839" lon="6.3754506502"><ele></ele><time>2013-8-22T11:22:8Z</time></trkpt>
<trkpt lat="46.6043192334" lon="6.3752638176"><ele></ele><time>2013-8-22T11:22:11Z</time></trkpt>
<trkpt lat="46.6039634217" lon="6.3750214968"><ele></ele><time>2013-8-22T11:22:14Z</time></trkpt>
<trkpt lat="46.6035319213" lon="6.3746299781"><ele></ele><time>2013-8-22T11:22:17Z</time></trkpt>
<trkpt lat="46.6031585075" lon="6.3745763339"><ele></ele><time>2013-8-22T11:22:20Z</time></trkpt>
<trkpt lat="46.6030704975" lon="6.3745754119"><ele></ele><time>2013-8-22T11:22:23Z</time></trkpt>
<trkpt lat="46.6026139352" lon="6.3745502662"><ele></ele><time>2013-8-22T11:22:26Z</time></trkpt>
<trkpt lat="46.6025137715" lon="6.3745484222"><ele></ele><time>2013-8-22T11:22:29Z</time></trkpt>
<trkpt lat="46.6023116000" lon="6.3744651061"><ele></ele><time>2013-8-22T11:22:32Z</time></trkpt>
<trkpt lat="46.6021584626" lon="6.3743327558"><ele></ele><time>2013-8-22T11:22:35Z</time></trkpt>
<trkpt lat="46.6019834485" lon="6.3744275551"><ele></ele><time>2013-8-22T11:22:38Z</time></trkpt>
<trkpt lat="46.6018075123" lon="6.3748085126"><ele></ele><time>2013-8-22T11:22:41Z</time></trkpt>
<trkpt lat="46.6017297283" lon="6.3754735328"><ele></ele><time>2013-8-22T11:22:44Z</time></trkpt>
<trkpt lat="46.6017096117" lon="6.3756692503"><ele></ele><time>2013-8-22T11:22:47Z</time></trkpt>
<trkpt lat="46.6017036606" lon="6.3756767102"><ele></ele><time>2013-8-22T11:22:50Z</time></trkpt>
<trkpt lat="46.6017036606" lon="6.3756767102"><ele></ele><time>2013-8-22T11:22:53Z</time></trkpt>
<trkpt lat="46.6017020680" lon="6.3756622095"><ele></ele><time>2013-8-22T11:22:56Z</time></trkpt>
<trkpt lat="46.6017020680" lon="6.3756622095"><ele></ele><time>2013-8-22T11:22:59Z</time></trkpt>
<trkpt lat="46.6017020680" lon="6.3756622095"><ele></ele><time>2013-8-22T11:23:2Z</time></trkpt>
<trkpt lat="46.6016982961" lon="6.3757775445"><ele></ele><time>2013-8-22T11:23:5Z</time></trkpt>
<trkpt lat="46.6016678698" lon="6.3760658819"><ele></ele><time>2013-8-22T11:23:8Z</time></trkpt>
<trkpt lat="46.6016147286" lon="6.3764142338"><ele></ele><time>2013-8-22T11:23:11Z</time></trkpt>
<trkpt lat="46.6015243717" lon="6.3766968716"><ele></ele><time>2013-8-22T11:23:14Z</time></trkpt>
<trkpt lat="46.6011855751" lon="6.3771031424"><ele></ele><time>2013-8-22T11:23:17Z</time></trkpt>
<trkpt lat="46.6009915341" lon="6.3770932518"><ele></ele><time>2013-8-22T11:23:20Z</time></trkpt>
<trkpt lat="46.6008745227" lon="6.3770391885"><ele></ele><time>2013-8-22T11:23:23Z</time></trkpt>
<trkpt lat="46.6006607842" lon="6.3768582232"><ele></ele><time>2013-8-22T11:23:26Z</time></trkpt>
<trkpt lat="46.6005276795" lon="6.3766988833"><ele></ele><time>2013-8-22T11:23:29Z</time></trkpt>
<trkpt lat="46.6002992727" lon="6.3765919302"><ele></ele><time>2013-8-22T11:23:32Z</time></trkpt>
<trkpt lat="46.6000826843" lon="6.3764877431"><ele></ele><time>2013-8-22T11:23:35Z</time></trkpt>
<trkpt lat="46.5999548603" lon="6.3763218652"><ele></ele><time>2013-8-22T11:23:38Z</time></trkpt>
<trkpt lat="46.5998365078" lon="6.3760297559"><ele></ele><time>2013-8-22T11:23:41Z</time></trkpt>
<trkpt lat="46.5997990407" lon="6.3756805658"><ele></ele><time>2013-8-22T11:23:44Z</time></trkpt>
<trkpt lat="46.5998080932" lon="6.3754257560"><ele></ele><time>2013-8-22T11:23:47Z</time></trkpt>
<trkpt lat="46.5998149663" lon="6.3753390033"><ele></ele><time>2013-8-22T11:23:50Z</time></trkpt>
<trkpt lat="46.5998297185" lon="6.3752580341"><ele></ele><time>2013-8-22T11:23:53Z</time></trkpt>
<trkpt lat="46.5998150501" lon="6.3752544299"><ele></ele><time>2013-8-22T11:23:56Z</time></trkpt>
<trkpt lat="46.5998113621" lon="6.3752043061"><ele></ele><time>2013-8-22T11:23:59Z</time></trkpt>
<trkpt lat="46.5998096019" lon="6.3752067368"><ele></ele><time>2013-8-22T11:24:2Z</time></trkpt>
<trkpt lat="46.5998106916" lon="6.3752051443"><ele></ele><time>2013-8-22T11:24:5Z</time></trkpt>
<trkpt lat="46.5998083446" lon="6.3752047252"><ele></ele><time>2013-8-22T11:24:8Z</time></trkpt>
<trkpt lat="46.5998083446" lon="6.3752047252"><ele></ele><time>2013-8-22T11:24:11Z</time></trkpt>
<trkpt lat="46.5998080932" lon="6.3752038870"><ele></ele><time>2013-8-22T11:24:14Z</time></trkpt>
</trkseg></trk></gpx>